FW6030 Weather Reports


time (UTC)temp
F
wind
direction
speed
knots
gust
knots
rain 1hr
in
rain 24hr
in
rain mn
in
humidity
%
barometer
mb
20260505235531 83 360 3.5 8.7 0.00 0.00 0.00 71 1006.9
20260505235432 83 360 3.5 8.7 0.00 0.00 0.00 71 1006.8
20260505235331 83 360 3.5 8.7 0.00 0.00 0.00 72 1006.7
20260505235232 83 360 2.6 8.7 0.00 0.00 0.00 72 1006.7
20260505235133 83 360 2.6 8.7 0.00 0.00 0.00 72 1006.9
20260505235033 83 360 2.6 8.7 0.00 0.00 0.00 72 1006.8
20260505234917 83 360 3.5 12.2 0.00 0.00 0.00 72 1006.8
20260505234817 83 360 2.6 12.2 0.00 0.00 0.00 72 1006.7
20260505234718 83 360 3.5 12.2 0.00 0.00 0.00 72 1006.7
20260505234619 83 360 3.5 12.2 0.00 0.00 0.00 72 1006.7
20260505234518 83 360 4.3 12.2 0.00 0.00 0.00 72 1006.8
20260505234419 83 360 5.2 12.2 0.00 0.00 0.00 71 1006.7
20260505234340 83 360 5.2 12.2 0.00 0.00 0.00 71 1006.6
20260505234224 83 360 4.3 12.2 0.00 0.00 0.00 71 1006.6
20260505234125 83 360 4.3 12.2 0.00 0.00 0.00 71 1006.6
20260505234024 83 360 4.3 12.2 0.00 0.00 0.00 71 1006.6
20260505233925 83 360 3.5 11.3 0.00 0.00 0.00 72 1006.7
20260505233845 83 360 3.5 11.3 0.00 0.00 0.00 72 1006.6
20260505233724 83 360 3.5 11.3 0.00 0.00 0.00 72 1006.7
20260505233624 83 360 3.5 11.3 0.00 0.00 0.00 72 1006.7
20260505233529 83 360 3.5 11.3 0.00 0.00 0.00 72 1006.7
20260505233430 83 360 3.5 11.3 0.00 0.00 0.00 72 1006.7
20260505233331 83 360 4.3 11.3 0.00 0.00 0.00 72 1006.7
20260505233231 83 360 5.2 11.3 0.00 0.00 0.00 72 1006.7
20260505233134 83 360 5.2 11.3 0.00 0.00 0.00 72 1006.8
20260505233034 83 360 5.2 13.0 0.00 0.00 0.00 72 1006.8
20260505232919 83 360 4.3 13.0 0.00 0.00 0.00 72 1006.7
20260505232821 83 360 4.3 13.0 0.00 0.00 0.00 72 1006.7
20260505232720 83 360 5.2 13.0 0.00 0.00 0.00 72 1006.8
20260505232621 83 360 5.2 13.0 0.00 0.00 0.00 72 1006.8
20260505232522 83 360 5.2 13.0 0.00 0.00 0.00 72 1006.7
20260505232423 82 360 6.1 13.0 0.00 0.00 0.00 72 1006.7
20260505232323 82 360 7.0 13.0 0.00 0.00 0.00 72 1006.7
20260505232227 82 360 6.1 13.0 0.00 0.00 0.00 72 1006.7
20260505232128 82 360 5.2 13.0 0.00 0.00 0.00 72 1006.7
20260505232028 82 360 5.2 13.0 0.00 0.00 0.00 72 1006.6
20260505231949 82 360 4.3 13.0 0.00 0.00 0.00 72 1006.7
20260505231827 83 360 4.3 13.0 0.00 0.00 0.00 72 1006.7
20260505231728 83 360 4.3 13.0 0.00 0.00 0.00 71 1006.7
20260505231631 83 360 4.3 11.3 0.00 0.00 0.00 71 1006.7
20260505231535 83 360 4.3 11.3 0.00 0.00 0.00 71 1006.7
20260505231456 83 360 4.3 11.3 0.00 0.00 0.00 71 1006.8
20260505231335 83 360 4.3 11.3 0.00 0.00 0.00 71 1006.8
20260505231216 83 360 4.3 11.3 0.00 0.00 0.00 71 1006.8
20260505231116 83 360 3.5 11.3 0.00 0.00 0.00 71 1006.8
20260505231017 83 360 4.3 11.3 0.00 0.00 0.00 71 1006.7
20260505230916 83 360 4.3 11.3 0.00 0.00 0.00 71 1006.8
20260505230821 83 360 4.3 11.3 0.00 0.00 0.00 71 1006.7
20260505230722 83 360 4.3 11.3 0.00 0.00 0.00 71 1006.7
20260505230643 83 360 5.2 11.3 0.00 0.00 0.00 71 1006.7
20260505230522 83 360 4.3 11.3 0.00 0.00 0.00 71 1006.6
20260505230442 83 360 4.3 11.3 0.00 0.00 0.00 71 1006.6
20260505230316 83 360 5.2 11.3 0.00 0.00 0.00 71 1006.6
20260505230216 83 360 6.1 13.9 0.00 0.00 0.00 71 1006.6
20260505230121 83 360 6.1 13.9 0.00 0.00 0.00 71 1006.6
20260505230021 83 360 6.1 13.0 0.00 0.00 0.00 71 1006.5
20260505225942 83 360 6.1 13.0 0.00 0.00 0.00 71 1006.6
20260505225822 83 360 5.2 13.0 0.00 0.00 0.00 71 1006.6
20260505225744 83 360 5.2 13.0 0.00 0.00 0.00 71 1006.6
20260505225616 83 360 4.3 13.0 0.00 0.00 0.00 71 1006.5
20260505225517 83 360 3.5 13.0 0.00 0.00 0.00 71 1006.5
20260505225421 83 360 3.5 13.0 0.00 0.00 0.00 71 1006.6
20260505225323 83 360 3.5 12.2 0.00 0.00 0.00 71 1006.5
20260505225243 83 360 3.5 12.2 0.00 0.00 0.00 71 1006.5
20260505225116 83 360 4.3 12.2 0.00 0.00 0.00 71 1006.5
20260505225017 83 360 5.2 12.2 0.00 0.00 0.00 71 1006.6
20260505224918 83 360 5.2 12.2 0.00 0.00 0.00 71 1006.6
20260505224822 83 360 4.3 12.2 0.00 0.00 0.00 71 1006.6
20260505224722 83 360 5.2 12.2 0.00 0.00 0.00 70 1006.5
20260505224643 83 360 6.1 12.2 0.00 0.00 0.00 70 1006.5
20260505224516 83 360 5.2 12.2 0.00 0.00 0.00 70 1006.6
20260505224417 83 360 5.2 12.2 0.00 0.00 0.00 70 1006.6
20260505224316 83 360 5.2 12.2 0.00 0.00 0.00 70 1006.6
20260505224217 83 360 5.2 13.9 0.00 0.00 0.00 70 1006.6
20260505224121 83 360 5.2 13.9 0.00 0.00 0.00 70 1006.6
20260505224022 83 360 6.1 13.9 0.00 0.00 0.00 70 1006.5
20260505223922 83 360 5.2 13.9 0.00 0.00 0.00 70 1006.5
20260505223843 83 360 5.2 13.9 0.00 0.00 0.00 70 1006.5
20260505223716 83 360 5.2 13.9 0.00 0.00 0.00 70 1006.5
20260505223617 83 360 7.0 13.9 0.00 0.00 0.00 70 1006.5
20260505223517 83 360 7.8 13.9 0.00 0.00 0.00 70 1006.5
20260505223421 83 360 7.8 13.9 0.00 0.00 0.00 70 1006.5
20260505223322 83 360 7.0 13.9 0.00 0.00 0.00 70 1006.5
20260505223242 83 360 7.8 13.9 0.00 0.00 0.00 69 1006.5
20260505223122 83 360 7.8 13.9 0.00 0.00 0.00 69 1006.5
20260505223022 83 360 7.8 13.9 0.00 0.00 0.00 69 1006.5
20260505222923 83 360 7.0 13.0 0.00 0.00 0.00 70 1006.4
20260505222845 83 360 7.0 13.0 0.00 0.00 0.00 70 1006.5
20260505222724 83 360 7.8 13.0 0.00 0.00 0.00 70 1006.5
20260505222629 83 360 7.8 13.0 0.00 0.00 0.00 70 1006.5
20260505222529 83 360 7.8 13.0 0.00 0.00 0.00 70 1006.4
20260505222430 83 360 7.8 13.0 0.00 0.00 0.00 70 1006.5
20260505222330 83 360 7.8 13.0 0.00 0.00 0.00 70 1006.6
20260505222230 83 360 7.0 13.0 0.00 0.00 0.00 70 1006.5
20260505222130 83 360 7.0 13.0 0.00 0.00 0.00 70 1006.5
20260505222016 83 360 6.1 13.0 0.00 0.00 0.00 70 1006.5
20260505221917 83 360 7.0 14.8 0.00 0.00 0.00 70 1006.6
20260505221817 83 360 7.8 14.8 0.00 0.00 0.00 70 1006.5
20260505221737 83 360 7.8 14.8 0.00 0.00 0.00 70 1006.5
20260505221617 83 360 7.0 14.8 0.00 0.00 0.00 70 1006.5
20260505221516 83 360 7.0 14.8 0.00 0.00 0.00 70 1006.5
20260505221418 83 360 7.8 14.8 0.00 0.00 0.00 70 1006.5
20260505221323 83 360 7.0 14.8 0.00 0.00 0.00 70 1006.5
20260505221223 83 360 6.1 14.8 0.00 0.00 0.00 70 1006.5
20260505221144 83 360 5.2 14.8 0.00 0.00 0.00 70 1006.5
20260505221044 83 360 6.1 14.8 0.00 0.00 0.00 70 1006.5
20260505220924 83 360 6.1 14.8 0.00 0.00 0.00 70 1006.5
20260505220824 83 360 5.2 16.5 0.00 0.00 0.00 70 1006.5
20260505220725 83 360 6.1 16.5 0.00 0.00 0.00 70 1006.5
20260505220629 83 360 7.0 16.5 0.00 0.00 0.00 70 1006.5
20260505220530 83 360 8.7 16.5 0.00 0.00 0.00 70 1006.5
20260505220451 83 360 9.6 16.5 0.00 0.00 0.00 70 1006.5
20260505220329 83 360 9.6 16.5 0.00 0.00 0.00 70 1006.5
20260505220231 83 360 8.7 16.5 0.00 0.00 0.00 70 1006.6
20260505220152 83 360 8.7 16.5 0.00 0.00 0.00 69 1006.6
20260505220051 84 360 7.8 16.5 0.00 0.00 0.00 69 1006.6
20260505215930 84 360 6.1 16.5 0.00 0.00 0.00 69 1006.6
20260505215836 84 360 4.3 15.6 0.00 0.00 0.00 69 1006.6
20260505215717 84 360 3.5 12.2 0.00 0.00 0.00 70 1006.6
20260505215616 84 360 3.5 12.2 0.00 0.00 0.00 70 1006.7
20260505215537 84 360 4.3 13.9 0.00 0.00 0.00 70 1006.7
20260505215416 83 360 5.2 13.9 0.00 0.00 0.00 70 1006.7
20260505215316 83 360 6.1 13.9 0.00 0.00 0.00 70 1006.8
20260505215218 83 360 6.1 13.9 0.00 0.00 0.00 69 1006.7
20260505215122 83 360 6.1 13.9 0.00 0.00 0.00 69 1006.8
20260505215022 83 360 5.2 13.9 0.00 0.00 0.00 69 1006.8
20260505214923 83 360 5.2 13.9 0.00 0.00 0.00 69 1006.8
20260505214824 83 360 5.2 13.9 0.00 0.00 0.00 69 1006.9
20260505214744 83 360 5.2 13.9 0.00 0.00 0.00 69 1006.9
20260505214623 83 360 4.3 13.9 0.00 0.00 0.00 69 1006.9
20260505214524 83 360 5.2 13.9 0.00 0.00 0.00 69 1006.9
20260505214447 83 360 5.2 18.2 0.00 0.00 0.00 69 1006.9
20260505214327 83 360 5.2 18.2 0.00 0.00 0.00 69 1007.0
20260505214246 83 360 6.1 20.9 0.00 0.00 0.00 70 1007.0
20260505214126 83 360 6.1 20.9 0.00 0.00 0.00 70 1007.0
20260505214046 83 360 7.0 20.9 0.00 0.00 0.00 70 1006.9
20260505213926 83 360 7.8 20.9 0.00 0.00 0.00 70 1007.0
20260505213825 83 360 8.7 20.9 0.00 0.00 0.00 70 1007.0
20260505213725 83 360 9.6 20.9 0.00 0.00 0.00 70 1006.9
20260505213644 83 360 9.6 20.9 0.00 0.00 0.00 70 1006.9
20260505213548 83 360 9.6 20.9 0.00 0.00 0.00 70 1006.9
20260505213427 83 360 9.6 20.9 0.00 0.00 0.00 70 1007.0
20260505213327 83 360 10.4 17.4 0.00 0.00 0.00 70 1007.1
20260505213227 83 360 9.6 17.4 0.00 0.00 0.00 70 1007.1
20260505213127 83 360 7.8 17.4 0.00 0.00 0.00 70 1007.1
20260505213028 83 360 7.8 17.4 0.00 0.00 0.00 69 1007.2
20260505212929 83 360 7.0 17.4 0.00 0.00 0.00 69 1007.2
20260505212833 84 360 6.1 14.8 0.00 0.00 0.00 69 1007.2
20260505212735 83 360 5.2 15.6 0.00 0.00 0.00 69 1007.1
20260505212635 83 360 4.3 15.6 0.00 0.00 0.00 69 1007.2
20260505212535 83 360 4.3 18.2 0.00 0.00 0.00 68 1007.2
20260505212435 83 360 4.3 18.2 0.00 0.00 0.00 68 1007.2
20260505212356 83 360 6.1 18.2 0.00 0.00 0.00 69 1007.3
20260505212236 83 360 6.1 18.2 0.00 0.00 0.00 69 1007.2
20260505212120 83 360 7.8 18.2 0.00 0.00 0.00 69 1007.1
20260505212040 83 360 9.6 18.2 0.00 0.00 0.00 69 1007.1
20260505211920 83 360 10.4 18.2 0.00 0.00 0.00 69 1007.0
20260505211820 83 360 10.4 18.2 0.00 0.00 0.00 69 1006.9
20260505211721 83 360 9.6 18.2 0.00 0.00 0.00 69 1007.0
20260505211622 83 360 9.6 18.2 0.00 0.00 0.00 68 1007.0
20260505211522 83 360 8.7 16.5 0.00 0.00 0.00 68 1006.9
20260505211427 84 360 7.8 16.5 0.00 0.00 0.00 68 1006.9
20260505211327 84 360 7.0 19.1 0.00 0.00 0.00 68 1007.0
20260505211228 83 360 6.1 19.1 0.00 0.00 0.00 68 1007.0
20260505211128 83 360 6.1 19.1 0.00 0.00 0.00 68 1007.1
20260505211029 84 360 7.0 19.1 0.00 0.00 0.00 68 1007.1
20260505210926 84 360 7.0 19.1 0.00 0.00 0.00 68 1007.1
20260505210826 84 360 7.8 19.1 0.00 0.00 0.00 68 1007.0
20260505210731 84 360 7.8 19.1 0.00 0.00 0.00 69 1007.1
20260505210630 83 360 7.8 19.1 0.00 0.00 0.00 69 1007.1
20260505210531 84 360 7.8 19.1 0.00 0.00 0.00 69 1007.1
20260505210432 84 360 7.0 19.1 0.00 0.00 0.00 69 1007.1
20260505210334 84 360 7.0 19.1 0.00 0.00 0.00 69 1007.3
20260505210234 84 360 6.1 15.6 0.00 0.00 0.00 69 1007.1
20260505210118 84 360 5.2 13.0 0.00 0.00 0.00 69 1007.3
20260505210039 83 360 5.2 13.0 0.00 0.00 0.00 69 1007.3
20260505205918 83 360 5.2 13.9 0.00 0.00 0.00 69 1007.4
20260505205820 83 360 6.1 16.5 0.00 0.00 0.00 69 1007.4
20260505205719 83 360 6.1 16.5 0.00 0.00 0.00 69 1007.4
20260505205618 83 360 7.0 16.5 0.00 0.00 0.00 69 1007.4
20260505205517 83 360 7.8 16.5 0.00 0.00 0.00 69 1007.4
20260505205417 83 360 7.8 16.5 0.00 0.00 0.00 68 1007.4
20260505205322 83 360 7.8 16.5 0.00 0.00 0.00 68 1007.4
20260505205222 83 360 7.8 16.5 0.00 0.00 0.00 68 1007.4
20260505205121 84 360 7.0 21.7 0.00 0.00 0.00 68 1007.4
20260505205042 84 360 6.1 21.7 0.00 0.00 0.00 69 1007.5
20260505204942 84 360 6.1 21.7 0.00 0.00 0.00 69 1007.3
20260505204821 83 360 5.2 21.7 0.00 0.00 0.00 70 1007.4
20260505204722 83 360 6.1 21.7 0.00 0.00 0.00 69 1007.4
20260505204622 83 360 7.0 21.7 0.00 0.00 0.00 69 1007.5
20260505204547 83 360 7.0 21.7 0.00 0.00 0.00 68 1007.5
20260505204427 83 360 7.8 21.7 0.00 0.00 0.00 68 1007.4
20260505204327 83 360 9.6 21.7 0.00 0.00 0.00 68 1007.5
20260505204228 83 360 11.3 21.7 0.00 0.00 0.00 68 1007.6
20260505204128 83 360 11.3 21.7 0.00 0.00 0.00 69 1007.5
20260505204029 83 360 11.3 21.7 0.00 0.00 0.00 69 1007.4
20260505203929 83 360 11.3 21.7 0.00 0.00 0.00 70 1007.6
20260505203834 83 360 10.4 21.7 0.00 0.00 0.00 69 1007.6
20260505203734 83 360 10.4 21.7 0.00 0.00 0.00 70 1007.7
20260505203634 83 360 9.6 21.7 0.00 0.00 0.00 70 1007.6
20260505203535 83 360 8.7 13.9 0.00 0.00 0.00 72 1007.7
20260505203435 83 360 7.8 13.9 0.00 0.00 0.00 71 1007.7
20260505203335 83 360 7.0 13.9 0.00 0.00 0.00 71 1007.7
20260505203220 83 360 6.1 13.0 0.00 0.00 0.00 72 1007.9
20260505203120 83 360 5.2 13.0 0.00 0.00 0.00 71 1007.9
20260505203020 83 360 5.2 13.0 0.00 0.00 0.00 72 1007.9
20260505202920 83 360 6.1 13.0 0.00 0.00 0.00 72 1008.0
20260505202823 82 360 6.1 13.0 0.00 0.00 0.00 72 1008.0
20260505202723 82 360 7.0 13.0 0.00 0.00 0.00 72 1008.0
20260505202627 82 360 7.0 13.0 0.00 0.00 0.00 72 1008.0
20260505202528 82 360 7.8 13.0 0.00 0.00 0.00 73 1008.0
20260505202428 82 360 7.0 13.0 0.00 0.00 0.00 73 1008.0
20260505202329 82 360 7.0 13.0 0.00 0.00 0.00 72 1008.1
20260505202250 82 360 6.1 14.8 0.00 0.00 0.00 72 1008.1
20260505202128 82 360 6.1 14.8 0.00 0.00 0.00 72 1008.1
20260505202049 82 360 6.1 14.8 0.00 0.00 0.00 72 1008.1
20260505201928 82 360 5.2 14.8 0.00 0.00 0.00 72 1008.1
20260505201833 82 360 4.3 14.8 0.00 0.00 0.00 71 1008.3
20260505201733 82 360 4.3 14.8 0.00 0.00 0.00 71 1008.2
20260505201634 82 360 5.2 14.8 0.00 0.00 0.00 71 1008.2
20260505201534 82 360 6.1 16.5 0.00 0.00 0.00 72 1008.2
20260505201436 82 360 6.1 16.5 0.00 0.00 0.00 72 1008.2
20260505201335 82 360 7.0 16.5 0.00 0.00 0.00 72 1008.3
20260505201220 82 360 8.7 16.5 0.00 0.00 0.00 73 1008.3
20260505201121 82 360 9.6 16.5 0.00 0.00 0.00 72 1008.3
20260505201042 82 360 9.6 16.5 0.00 0.00 0.00 72 1008.4
20260505200921 82 360 10.4 16.5 0.00 0.00 0.00 72 1008.3
20260505200822 82 360 11.3 16.5 0.00 0.00 0.00 72 1008.3
20260505200722 82 360 10.4 16.5 0.00 0.00 0.00 72 1008.3
20260505200643 82 360 8.7 16.5 0.00 0.00 0.00 72 1008.3
20260505200527 82 360 7.0 15.6 0.00 0.00 0.00 71 1008.3
20260505200428 83 360 5.2 16.5 0.00 0.00 0.00 71 1008.4
20260505200328 83 360 5.2 16.5 0.00 0.00 0.00 71 1008.3
20260505200229 83 360 4.3 16.5 0.00 0.00 0.00 71 1008.3
20260505200129 83 360 5.2 16.5 0.00 0.00 0.00 71 1008.3
20260505200029 82 360 6.1 16.5 0.00 0.00 0.00 71 1008.4
20260505195931 82 360 7.0 16.5 0.00 0.00 0.00 70 1008.4
20260505195835 82 360 6.1 16.5 0.00 0.00 0.00 70 1008.4
20260505195736 82 360 6.1 16.5 0.00 0.00 0.00 70 1008.4
20260505195617 83 360 6.1 16.5 0.00 0.00 0.00 70 1008.3
20260505195517 83 360 6.1 16.5 0.00 0.00 0.00 70 1008.4
20260505195418 83 360 7.0 15.6 0.00 0.00 0.00 71 1008.3
20260505195319 83 360 7.0 14.8 0.00 0.00 0.00 71 1008.4
20260505195243 82 360 7.8 14.8 0.00 0.00 0.00 72 1008.5
20260505195123 82 360 7.8 14.8 0.00 0.00 0.00 72 1008.4
20260505195022 82 360 7.8 15.6 0.00 0.00 0.00 72 1008.5
20260505194924 82 360 7.8 15.6 0.00 0.00 0.00 72 1008.5
20260505194825 82 360 8.7 15.6 0.00 0.00 0.00 72 1008.4
20260505194725 81 360 7.8 15.6 0.00 0.00 0.00 72 1008.4
20260505194626 81 360 7.8 15.6 0.00 0.00 0.00 73 1008.4
20260505194530 81 360 7.8 15.6 0.00 0.00 0.00 72 1008.4
20260505194431 81 360 8.7 15.6 0.00 0.00 0.00 72 1008.5
20260505194353 81 360 8.7 15.6 0.00 0.00 0.00 72 1008.6
20260505194232 81 360 7.8 15.6 0.00 0.00 0.00 72 1008.6
20260505194133 81 360 7.8 15.6 0.00 0.00 0.00 71 1008.5
20260505194033 82 360 7.0 13.0 0.00 0.00 0.00 71 1008.6
20260505193918 82 360 5.2 12.2 0.00 0.00 0.00 71 1008.6
20260505193819 82 360 6.1 12.2 0.00 0.00 0.00 71 1008.6
20260505193719 82 360 6.1 12.2 0.00 0.00 0.00 73 1008.6
20260505193619 82 360 5.2 12.2 0.00 0.00 0.00 73 1008.6
20260505193519 82 360 6.1 12.2 0.00 0.00 0.00 73 1008.5
20260505193418 82 360 7.8 12.2 0.00 0.00 0.00 73 1008.6
20260505193339 82 360 7.0 16.5 0.00 0.00 0.00 73 1008.7
20260505193218 81 360 7.0 16.5 0.00 0.00 0.00 73 1008.6
20260505193139 81 360 6.1 16.5 0.00 0.00 0.00 72 1008.6
20260505193041 82 360 6.1 16.5 0.00 0.00 0.00 72 1008.6
20260505192921 82 360 5.2 16.5 0.00 0.00 0.00 73 1008.7
20260505192822 82 360 4.3 18.2 0.00 0.00 0.00 72 1008.7
20260505192722 82 360 6.1 18.2 0.00 0.00 0.00 72 1008.7
20260505192621 82 360 6.1 18.2 0.00 0.00 0.00 72 1008.7
20260505192543 82 360 6.1 18.2 0.00 0.00 0.00 73 1008.7
20260505192416 81 360 7.0 19.1 0.00 0.00 0.00 73 1008.7
20260505192320 81 360 7.8 19.1 0.00 0.00 0.00 73 1008.7
20260505192220 81 360 8.7 19.1 0.00 0.00 0.00 73 1008.7
20260505192122 81 360 7.8 19.1 0.00 0.00 0.00 73 1008.6
20260505192023 81 360 7.8 19.1 0.00 0.00 0.00 73 1008.6
20260505191924 81 360 7.0 19.1 0.00 0.00 0.00 73 1008.6
20260505191824 81 360 7.0 19.1 0.00 0.00 0.00 73 1008.7
20260505191728 81 360 7.0 19.1 0.00 0.00 0.00 73 1008.7
20260505191628 81 360 8.7 19.1 0.00 0.00 0.00 73 1008.6
20260505191529 81 360 8.7 19.1 0.00 0.00 0.00 73 1008.7
20260505191449 81 360 9.6 19.1 0.00 0.00 0.00 73 1008.7
20260505191330 82 360 10.4 19.1 0.00 0.00 0.00 73 1008.7
20260505191231 81 360 8.7 19.1 0.00 0.00 0.00 74 1008.7
20260505191132 81 360 8.7 15.6 0.00 0.00 0.00 73 1008.7
20260505191016 81 360 7.0 15.6 0.00 0.00 0.00 73 1008.7
20260505190917 81 360 7.0 15.6 0.00 0.00 0.00 74 1008.6
20260505190817 81 360 7.0 15.6 0.00 0.00 0.00 74 1008.7
20260505190717 81 360 7.0 15.6 0.00 0.00 0.00 74 1008.6
20260505190618 81 360 7.8 15.6 0.00 0.00 0.00 73 1008.6
20260505190539 81 360 5.2 13.9 0.00 0.00 0.00 73 1008.7
20260505190418 81 360 5.2 15.6 0.00 0.00 0.00 73 1008.7
20260505190343 81 360 4.3 15.6 0.00 0.00 0.00 73 1008.7
20260505190216 81 360 4.3 15.6 0.00 0.00 0.00 73 1008.8
20260505190118 81 360 3.5 15.6 0.00 0.00 0.00 75 1008.8
20260505190019 81 360 4.3 15.6 0.00 0.00 0.00 75 1008.9
20260505185919 80 360 5.2 15.6 0.00 0.00 0.00 75 1008.8
20260505185840 80 360 5.2 15.6 0.00 0.00 0.00 75 1008.8
20260505185739 80 360 6.1 15.6 0.00 0.00 0.00 75 1008.8
20260505185622 80 360 7.0 15.6 0.00 0.00 0.00 75 1008.9
20260505185522 80 360 7.0 15.6 0.00 0.00 0.00 75 1008.9
20260505185423 80 360 7.8 15.6 0.00 0.00 0.00 75 1009.0
20260505185323 80 360 7.8 15.6 0.00 0.00 0.00 74 1008.9
20260505185243 80 360 7.0 15.6 0.00 0.00 0.00 74 1008.9
20260505185123 80 360 6.1 15.6 0.00 0.00 0.00 74 1008.9
20260505185023 80 360 6.1 15.6 0.00 0.00 0.00 73 1009.0
20260505184928 81 360 6.1 15.6 0.00 0.00 0.00 73 1009.0
20260505184848 81 360 6.1 15.6 0.00 0.00 0.00 74 1009.0
20260505184748 81 360 5.2 11.3 0.00 0.00 0.00 74 1009.0
20260505184627 81 360 4.3 11.3 0.00 0.00 0.00 74 1008.9
20260505184527 81 360 5.2 10.4 0.00 0.00 0.00 74 1009.0
20260505184428 81 360 5.2 10.4 0.00 0.00 0.00 75 1009.0
20260505184348 81 360 4.3 10.4 0.00 0.00 0.00 75 1009.0
20260505184227 81 360 3.5 10.4 0.00 0.00 0.00 74 1009.1
20260505184132 81 360 3.5 10.4 0.00 0.00 0.00 73 1009.0
20260505184032 81 360 3.5 10.4 0.00 0.00 0.00 73 1009.0
20260505183933 81 360 3.5 10.4 0.00 0.00 0.00 74 1009.1
20260505183833 81 360 3.5 10.4 0.00 0.00 0.00 74 1009.1
20260505183734 80 360 3.5 10.4 0.00 0.00 0.00 73 1009.1
20260505183654 80 360 4.3 10.4 0.00 0.00 0.00 74 1009.2
20260505183534 80 360 4.3 10.4 0.00 0.00 0.00 74 1009.1
20260505183439 80 360 4.3 10.4 0.00 0.00 0.00 74 1009.2
20260505183318 80 360 4.3 11.3 0.00 0.00 0.00 74 1009.2
20260505183219 80 360 4.3 11.3 0.00 0.00 0.00 74 1009.2
20260505183119 80 360 4.3 11.3 0.00 0.00 0.00 75 1009.3
20260505183020 80 360 4.3 11.3 0.00 0.00 0.00 75 1009.2
20260505182920 80 360 3.5 11.3 0.00 0.00 0.00 74 1009.3
20260505182822 80 360 4.3 11.3 0.00 0.00 0.00 74 1009.2
20260505182725 80 360 4.3 11.3 0.00 0.00 0.00 75 1009.2
20260505182625 79 360 4.3 11.3 0.00 0.00 0.00 75 1009.2
20260505182546 79 360 4.3 11.3 0.00 0.00 0.00 75 1009.4
20260505182425 80 360 4.3 11.3 0.00 0.00 0.00 75 1009.4
20260505182327 80 360 3.5 10.4 0.00 0.00 0.00 75 1009.4
20260505182246 80 360 2.6 10.4 0.00 0.00 0.00 75 1009.4
20260505182125 80 360 3.5 10.4 0.00 0.00 0.00 75 1009.4
20260505182029 79 360 2.6 10.4 0.00 0.00 0.00 75 1009.4
20260505181931 79 360 3.5 10.4 0.00 0.00 0.00 75 1009.5
20260505181830 79 360 3.5 11.3 0.00 0.00 0.00 75 1009.4
20260505181728 79 360 3.5 11.3 0.00 0.00 0.00 75 1009.5
20260505181648 79 360 4.3 11.3 0.00 0.00 0.00 75 1009.5
20260505181525 79 360 4.3 11.3 0.00 0.00 0.00 75 1009.5
20260505181425 79 360 4.3 12.2 0.00 0.00 0.00 75 1009.5
20260505181330 79 360 4.3 12.2 0.00 0.00 0.00 75 1009.5
20260505181252 79 360 5.2 12.2 0.00 0.00 0.00 75 1009.5
20260505181131 79 360 4.3 12.2 0.00 0.00 0.00 75 1009.5
20260505181031 79 360 4.3 12.2 0.00 0.00 0.00 76 1009.5
20260505180931 79 360 3.5 12.2 0.00 0.00 0.00 76 1009.4
20260505180831 79 360 3.5 12.2 0.00 0.00 0.00 76 1009.5
20260505180733 79 360 3.5 12.2 0.00 0.00 0.00 76 1009.4
20260505180617 79 360 2.6 12.2 0.00 0.00 0.00 77 1009.6
20260505180518 79 360 2.6 12.2 0.00 0.00 0.00 77 1009.6
20260505180417 78 360 3.5 12.2 0.00 0.00 0.00 77 1009.5
20260505180318 78 360 4.3 12.2 0.00 0.00 0.00 77 1009.6
20260505180218 78 360 4.3 12.2 0.00 0.00 0.00 77 1009.6
20260505180120 78 360 4.3 12.2 0.00 0.00 0.00 77 1009.6
20260505180020 78 360 4.3 12.2 0.00 0.00 0.00 77 1009.6
20260505175924 78 360 4.3 12.2 0.00 0.00 0.00 77 1009.6
20260505175826 78 360 4.3 12.2 0.00 0.00 0.00 77 1009.6
20260505175725 78 360 4.3 11.3 0.00 0.00 0.00 77 1009.7
20260505175625 78 360 4.3 10.4 0.00 0.00 0.00 77 1009.7
20260505175525 78 360 3.5 10.4 0.00 0.00 0.00 77 1009.7
20260505175427 78 360 4.3 10.4 0.00 0.00 0.00 77 1009.7
20260505175330 78 360 4.3 12.2 0.00 0.00 0.00 78 1009.7
20260505175231 78 360 4.3 12.2 0.00 0.00 0.00 79 1009.7
20260505175152 78 360 4.3 12.2 0.00 0.00 0.00 77 1009.8
20260505175032 78 360 4.3 12.2 0.00 0.00 0.00 77 1009.7
20260505174932 78 360 4.3 12.2 0.00 0.00 0.00 78 1009.8
20260505174833 78 360 4.3 12.2 0.00 0.00 0.00 78 1009.8
20260505174733 78 360 4.3 12.2 0.00 0.00 0.00 78 1009.8
20260505174618 77 360 5.2 12.2 0.00 0.00 0.00 78 1009.8
20260505174517 77 360 6.1 12.2 0.00 0.00 0.00 78 1009.9
20260505174418 77 360 7.0 11.3 0.00 0.00 0.00 78 1009.9
20260505174339 77 360 7.0 11.3 0.00 0.00 0.00 78 1009.9
20260505174239 77 360 6.1 11.3 0.00 0.00 0.00 79 1009.8
20260505174138 77 360 6.1 11.3 0.00 0.00 0.00 79 1009.8
20260505174058 77 360 5.2 11.3 0.00 0.00 0.00 79 1009.9
20260505173957 77 360 5.2 11.3 0.00 0.00 0.00 79 1009.9
20260505173857 77 360 4.3 11.3 0.00 0.00 0.00 80 1009.8
20260505173739 77 360 3.5 11.3 0.00 0.00 0.00 80 1010.3
20260505173620 77 360 3.5 11.3 0.00 0.00 0.00 79 1009.9
20260505173540 77 360 3.5 11.3 0.00 0.00 0.00 80 1009.9
20260505173419 77 360 3.5 10.4 0.00 0.00 0.00 80 1009.8
20260505173319 77 360 3.5 10.4 0.00 0.00 0.00 80 1009.9
20260505173220 77 360 3.5 10.4 0.00 0.00 0.00 80 1009.9
20260505173120 76 360 3.5 10.4 0.00 0.00 0.00 80 1009.9
20260505173025 76 360 2.6 13.9 0.00 0.00 0.00 80 1010.0
20260505172925 76 360 2.6 13.9 0.00 0.00 0.00 80 1010.0
20260505172846 76 360 2.6 13.9 0.00 0.00 0.00 80 1010.0
20260505172725 76 360 3.5 13.9 0.00 0.00 0.00 80 1010.0
20260505172624 76 360 3.5 13.9 0.00 0.00 0.00 80 1010.0
20260505172524 76 360 4.3 13.9 0.00 0.00 0.00 80 1010.0
20260505172424 76 360 4.3 13.9 0.00 0.00 0.00 80 1010.1
20260505172324 76 360 5.2 13.9 0.00 0.00 0.00 80 1010.0
20260505172229 76 360 5.2 13.9 0.00 0.00 0.00 80 1010.0
20260505172130 76 360 5.2 13.9 0.00 0.00 0.00 80 1010.1
20260505172051 76 360 4.3 13.9 0.00 0.00 0.00 80 1010.1
20260505171931 76 360 3.5 10.4 0.00 0.00 0.00 80 1010.1
20260505171831 76 360 2.6 10.4 0.00 0.00 0.00 80 1010.1
20260505171751 76 360 1.7 8.7 0.00 0.00 0.00 80 1010.1
20260505171631 76 360 1.7 8.7 0.00 0.00 0.00 81 1010.1
20260505171551 76 360 1.7 8.7 0.00 0.00 0.00 81 1010.1
20260505171435 76 360 1.7 8.7 0.00 0.00 0.00 81 1010.1
20260505171336 76 360 1.7 8.7 0.00 0.00 0.00 81 1010.1
20260505171216 75 360 2.6 8.7 0.00 0.00 0.00 81 1010.0
20260505171117 75 209 2.6 8.7 0.00 0.00 0.00 81 1010.1
20260505171018 75 360 3.5 8.7 0.00 0.00 0.00 81 1010.1
20260505170919 76 360 3.5 11.3 0.00 0.00 0.00 81 1010.2
20260505170823 76 360 3.5 11.3 0.00 0.00 0.00 81 1010.1
20260505170722 76 360 3.5 11.3 0.00 0.00 0.00 81 1010.2
20260505170622 75 360 3.5 11.3 0.00 0.00 0.00 81 1010.2
20260505170523 75 360 3.5 11.3 0.00 0.00 0.00 81 1010.2
20260505170423 75 360 3.5 11.3 0.00 0.00 0.00 81 1010.2
20260505170323 75 360 3.5 11.3 0.00 0.00 0.00 81 1010.3
20260505170223 75 360 3.5 11.3 0.00 0.00 0.00 81 1010.1
20260505170127 75 360 3.5 11.3 0.00 0.00 0.00 81 1010.1
20260505170048 75 360 3.5 8.7 0.00 0.00 0.00 82 1010.2
20260505165927 75 360 2.6 8.7 0.00 0.00 0.00 82 1010.1
20260505165849 75 360 2.6 8.7 0.00 0.00 0.00 81 1010.2
20260505165808 75 360 2.6 8.7 0.00 0.00 0.00 81 1010.2
20260505165726 75 360 2.6 8.7 0.00 0.00 0.00 81 1010.2
20260505165627 75 360 2.6 8.7 0.00 0.00 0.00 81 1010.2
20260505165547 75 360 2.6 8.7 0.00 0.00 0.00 81 1010.2
20260505165427 75 360 1.7 8.7 0.00 0.00 0.00 82 1010.2
20260505165328 75 360 1.7 8.7 0.00 0.00 0.00 82 1010.2
20260505165232 75 360 1.7 8.7 0.00 0.00 0.00 82 1010.1
20260505165132 75 360 1.7 8.7 0.00 0.00 0.00 82 1010.2
20260505165033 75 360 1.7 11.3 0.00 0.00 0.00 82 1010.1
20260505164933 75 360 1.7 11.3 0.00 0.00 0.00 82 1010.1
20260505164835 75 360 1.7 11.3 0.00 0.00 0.00 82 1010.2
20260505164735 74 360 2.6 11.3 0.00 0.00 0.00 82 1010.2
20260505164619 74 360 2.6 11.3 0.00 0.00 0.00 82 1010.1
20260505164520 74 360 2.6 11.3 0.00 0.00 0.00 82 1010.2
20260505164421 74 360 3.5 11.3 0.00 0.00 0.00 83 1010.1
20260505164342 74 360 3.5 11.3 0.00 0.00 0.00 83 1010.1
20260505164215 74 360 3.5 11.3 0.00 0.00 0.00 83 1010.1
20260505164135 74 360 3.5 11.3 0.00 0.00 0.00 83 1010.1
20260505164056 74 360 4.3 11.3 0.00 0.00 0.00 83 1010.2
20260505163919 74 360 4.3 11.3 0.00 0.00 0.00 83 1010.1
20260505163820 74 360 4.3 11.3 0.00 0.00 0.00 83 1010.1
20260505163719 74 360 4.3 11.3 0.00 0.00 0.00 84 1010.1
20260505163620 74 360 4.3 11.3 0.00 0.00 0.00 84 1010.0
20260505163540 73 360 4.3 11.3 0.00 0.00 0.00 84 1010.1
20260505163420 73 360 4.3 11.3 0.00 0.00 0.00 84 1010.1
20260505163321 73 360 4.3 11.3 0.00 0.00 0.00 84 1010.1
20260505163226 73 360 4.3 11.3 0.00 0.00 0.00 84 1010.1
20260505163125 73 360 4.3 11.3 0.00 0.00 0.00 84 1010.1
20260505163027 73 360 4.3 11.3 0.00 0.00 0.00 84 1010.0
20260505162927 73 360 3.5 11.3 0.00 0.00 0.00 83 1010.0
20260505162828 73 360 3.5 11.3 0.00 0.00 0.00 83 1010.0
20260505162730 73 360 2.6 11.3 0.00 0.00 0.00 84 1010.0
20260505162650 73 360 1.7 9.6 0.00 0.00 0.00 84 1010.0
20260505162532 73 360 1.7 9.6 0.00 0.00 0.00 84 1010.1
20260505162432 73 360 1.7 9.6 0.00 0.00 0.00 83 1010.0
20260505162352 73 360 1.7 9.6 0.00 0.00 0.00 83 1010.1
20260505162232 73 360 1.7 9.6 0.00 0.00 0.00 83 1010.0
20260505162152 73 360 2.6 9.6 0.00 0.00 0.00 83 1010.1
20260505162032 73 360 2.6 10.4 0.00 0.00 0.00 84 1010.0
20260505161932 73 360 2.6 10.4 0.00 0.00 0.00 84 1010.1
20260505161817 73 360 3.5 10.4 0.00 0.00 0.00 84 1010.1
20260505161717 73 360 3.5 10.4 0.00 0.00 0.00 84 1010.1
20260505161617 73 360 4.3 10.4 0.00 0.00 0.00 85 1010.2
20260505161538 73 360 4.3 10.4 0.00 0.00 0.00 85 1010.2
20260505161416 73 360 4.3 10.4 0.00 0.00 0.00 85 1010.2
20260505161317 73 360 4.3 10.4 0.00 0.00 0.00 85 1010.2
20260505161217 73 360 4.3 10.4 0.00 0.00 0.00 84 1010.2
20260505161118 73 360 3.5 9.6 0.00 0.00 0.00 84 1010.2
20260505161023 73 360 3.5 7.8 0.00 0.00 0.00 85 1010.2
20260505160923 73 360 2.6 7.8 0.00 0.00 0.00 85 1010.1
20260505160823 73 360 2.6 7.8 0.00 0.00 0.00 85 1010.2
20260505160724 73 360 2.6 7.8 0.00 0.00 0.00 85 1010.1
20260505160624 73 360 2.6 7.8 0.00 0.00 0.00 85 1010.2
20260505160523 73 360 2.6 7.8 0.00 0.00 0.00 85 1010.2
20260505160444 73 360 2.6 7.8 0.00 0.00 0.00 85 1010.2
20260505160328 73 360 2.6 7.8 0.00 0.00 0.00 85 1010.2
20260505160228 73 360 2.6 7.8 0.00 0.00 0.00 85 1010.2
20260505160127 73 360 2.6 7.8 0.00 0.00 0.00 85 1010.1
20260505153339 72 360 2.6 7.8 0.00 0.00 0.00 87 1010.3
20260505153217 72 360 1.7 5.2 0.00 0.00 0.00 87 1010.3
20260505153118 72 360 1.7 5.2 0.00 0.00 0.00 87 1010.2
20260505153039 72 360 1.7 5.2 0.00 0.00 0.00 87 1010.3
20260505152919 72 360 1.7 5.2 0.00 0.00 0.00 87 1010.3
20260505152820 72 360 1.7 9.6 0.00 0.00 0.00 87 1010.2
20260505152724 72 360 1.7 9.6 0.00 0.00 0.00 87 1010.2
20260505152624 72 360 1.7 9.6 0.00 0.00 0.00 87 1010.2
20260505152525 72 360 1.7 9.6 0.00 0.00 0.00 87 1010.1
20260505152425 72 360 2.6 9.6 0.00 0.00 0.00 87 1010.2
20260505152325 72 360 3.5 9.6 0.00 0.00 0.00 87 1010.1
20260505152225 72 360 3.5 9.6 0.00 0.00 0.00 87 1010.1
20260505152125 72 360 4.3 9.6 0.00 0.00 0.00 87 1010.1
20260505152046 71 360 4.3 9.6 0.00 0.00 0.00 87 1010.1
20260505151929 71 360 3.5 9.6 0.00 0.00 0.00 87 1010.1
20260505151829 71 360 2.6 9.6 0.00 0.00 0.00 87 1010.2
20260505151730 71 360 3.5 9.6 0.00 0.00 0.00 87 1010.1
20260505151630 71 360 2.6 9.6 0.00 0.00 0.00 87 1010.2
20260505151551 71 360 3.5 9.6 0.00 0.00 0.00 87 1010.3
20260505151431 71 360 3.5 13.9 0.00 0.00 0.00 87 1010.3
20260505151331 71 360 3.5 13.9 0.00 0.00 0.00 87 1010.3
20260505151236 71 360 3.5 13.9 0.00 0.00 0.00 87 1010.3
20260505151135 71 360 3.5 13.9 0.00 0.00 0.00 88 1010.2
20260505151035 71 360 3.5 13.9 0.00 0.00 0.00 88 1010.1
20260505150935 71 360 3.5 13.9 0.00 0.00 0.00 88 1010.1
20260505150816 71 360 4.3 13.9 0.00 0.00 0.00 88 1010.0
20260505150716 71 360 3.5 13.9 0.00 0.00 0.00 88 1009.9
20260505150621 71 360 4.3 13.9 0.00 0.00 0.00 88 1010.0
20260505150522 71 360 2.6 13.0 0.00 0.00 0.00 88 1009.9
20260505150422 71 360 2.6 13.0 0.00 0.00 0.00 88 1009.9
20260505150342 71 360 3.5 13.0 0.00 0.00 0.00 88 1009.9
20260505150221 71 360 4.3 13.0 0.00 0.00 0.00 88 1009.9
20260505150122 71 360 4.3 13.0 0.00 0.00 0.00 88 1009.8
20260505140617 71 360 1.7 13.9 0.00 0.00 0.00 88 1009.7
20260505140519 71 360 1.7 13.9 0.00 0.00 0.00 88 1009.7
20260505140417 71 360 2.6 13.9 0.00 0.00 0.00 88 1009.7
20260505140318 71 360 3.5 13.9 0.00 0.00 0.00 88 1009.6
20260505140223 71 360 4.3 13.9 0.00 0.00 0.00 88 1009.6
20260505140123 71 360 4.3 13.9 0.00 0.00 0.00 88 1009.7
20260505130217 70 360 3.5 13.9 0.00 0.00 0.00 87 1009.1
20260505130118 70 360 3.5 13.9 0.00 0.00 0.00 87 1009.2
20260505125026 70 360 5.2 16.5 0.00 0.00 0.00 87 1008.9
20260505124927 70 360 6.1 16.5 0.00 0.00 0.00 88 1008.9
20260505124827 70 360 6.1 16.5 0.00 0.00 0.00 87 1008.9
20260505124747 70 360 6.1 16.5 0.00 0.00 0.00 88 1008.8
20260505124627 70 360 6.1 16.5 0.00 0.00 0.00 87 1008.9
20260505124548 70 360 6.1 16.5 0.00 0.00 0.00 87 1008.9
20260505124427 70 360 6.1 16.5 0.00 0.00 0.00 87 1008.7
20260505124329 70 360 5.2 16.5 0.00 0.00 0.00 88 1008.8
20260505124254 70 360 5.2 12.2 0.00 0.00 0.00 88 1008.8
20260505124134 70 360 4.3 12.2 0.00 0.00 0.00 88 1008.8
20260505124055 70 360 3.5 10.4 0.00 0.00 0.00 88 1008.8
20260505123934 70 360 3.5 10.4 0.00 0.00 0.00 88 1008.8
20260505123835 70 360 3.5 12.2 0.00 0.00 0.00 88 1008.7
20260505123735 70 360 2.6 12.2 0.00 0.00 0.00 88 1008.7
20260505123617 70 360 1.7 12.2 0.00 0.00 0.00 88 1008.7
20260505123542 70 360 1.7 12.2 0.00 0.00 0.00 88 1008.7
20260505123416 70 360 3.5 12.2 0.00 0.00 0.00 88 1008.7
20260505123316 70 360 3.5 12.2 0.00 0.00 0.00 88 1008.7
20260505123217 70 360 4.3 12.2 0.00 0.00 0.00 88 1008.6
20260505123137 70 360 4.3 12.2 0.00 0.00 0.00 88 1008.6
20260505123016 70 360 4.3 12.2 0.00 0.00 0.00 87 1008.6
20260505122917 70 360 4.3 12.2 0.00 0.00 0.00 87 1008.6
20260505122822 70 360 4.3 13.9 0.00 0.00 0.00 87 1008.6
20260505122721 70 360 4.3 13.9 0.00 0.00 0.00 87 1008.6
20260505122622 70 360 4.3 13.9 0.00 0.00 0.00 87 1008.6
20260505122523 70 360 5.2 13.9 0.00 0.00 0.00 87 1008.5
20260505122444 70 360 5.2 13.9 0.00 0.00 0.00 87 1008.6
20260505122323 70 360 4.3 13.9 0.00 0.00 0.00 87 1008.5
20260505122223 70 360 4.3 13.9 0.00 0.00 0.00 87 1008.5
20260505122148 70 360 5.2 13.9 0.00 0.00 0.00 87 1008.5
20260505122027 70 360 6.1 13.9 0.00 0.00 0.00 87 1008.5
20260505121948 70 360 6.1 13.9 0.00 0.00 0.00 87 1008.5
20260505121828 70 360 6.1 13.0 0.00 0.00 0.00 87 1008.4
20260505121748 70 360 5.2 13.0 0.00 0.00 0.00 87 1008.5
20260505121627 70 360 6.1 13.0 0.00 0.00 0.00 87 1008.4
20260505121528 70 360 5.2 13.0 0.00 0.00 0.00 87 1008.3
20260505121429 70 360 5.2 13.0 0.00 0.00 0.00 87 1008.3
20260505121333 70 360 5.2 13.0 0.00 0.00 0.00 87 1008.3
20260505121233 70 360 5.2 13.0 0.00 0.00 0.00 87 1008.2
20260505121155 70 360 5.2 13.0 0.00 0.00 0.00 87 1008.3
20260505121035 70 360 5.2 13.0 0.00 0.00 0.00 87 1008.3
20260505120936 70 360 5.2 13.0 0.00 0.00 0.00 87 1008.3
20260505120857 70 360 5.2 13.0 0.00 0.00 0.00 87 1008.3
20260505120755 70 360 4.3 13.0 0.00 0.00 0.00 87 1008.2
20260505120620 70 360 4.3 12.2 0.00 0.00 0.00 87 1008.4
20260505120521 70 360 4.3 12.2 0.00 0.00 0.00 87 1008.3
20260505120422 70 360 4.3 12.2 0.00 0.00 0.00 87 1008.3
20260505120321 70 360 3.5 12.2 0.00 0.00 0.00 87 1008.4
20260505120222 70 360 2.6 12.2 0.00 0.00 0.00 87 1008.4
20260505120142 70 360 3.5 12.2 0.00 0.00 0.00 87 1008.4
20260505120023 70 360 2.6 8.7 0.00 0.00 0.00 87 1008.4
20260505115926 70 360 2.6 8.7 0.00 0.00 0.00 87 1008.4
20260505115827 70 360 3.5 8.7 0.00 0.00 0.00 87 1008.3
20260505115729 70 360 4.3 8.7 0.00 0.00 0.00 87 1008.3
20260505115629 70 360 3.5 8.7 0.00 0.00 0.00 87 1008.3
20260505115529 70 360 3.5 8.7 0.00 0.00 0.00 87 1008.3
20260505115429 70 360 3.5 10.4 0.00 0.00 0.00 87 1008.2
20260505115330 70 360 3.5 11.3 0.00 0.00 0.00 87 1008.3
20260505115234 70 360 3.5 11.3 0.00 0.00 0.00 87 1008.3
20260505115135 70 360 4.3 11.3 0.00 0.00 0.00 87 1008.3
20260505115016 70 360 4.3 11.3 0.00 0.00 0.00 87 1008.3
20260505114937 70 360 4.3 11.3 0.00 0.00 0.00 87 1008.3
20260505114836 70 360 5.2 11.3 0.00 0.00 0.00 87 1008.3
20260505114716 70 360 4.3 11.3 0.00 0.00 0.00 87 1008.3
20260505114617 70 360 4.3 11.3 0.00 0.00 0.00 87 1008.3
20260505114522 70 360 4.3 11.3 0.00 0.00 0.00 87 1008.4
20260505114443 70 360 4.3 11.3 0.00 0.00 0.00 87 1008.3
20260505114322 70 360 4.3 11.3 0.00 0.00 0.00 87 1008.3
20260505114242 70 360 4.3 11.3 0.00 0.00 0.00 87 1008.3
20260505114142 70 360 4.3 11.3 0.00 0.00 0.00 87 1008.2
20260505114043 70 360 4.3 10.4 0.00 0.00 0.00 87 1008.2
20260505113921 70 360 4.3 10.4 0.00 0.00 0.00 87 1008.2
20260505113822 70 360 4.3 10.4 0.00 0.00 0.00 87 1008.2
20260505113727 70 360 4.3 10.4 0.00 0.00 0.00 87 1008.2
20260505113627 70 360 4.3 10.4 0.00 0.00 0.00 87 1008.1
20260505113548 70 360 4.3 10.4 0.00 0.00 0.00 87 1008.1
20260505113428 70 360 3.5 8.7 0.00 0.00 0.00 87 1008.1
20260505113348 70 360 3.5 8.7 0.00 0.00 0.00 87 1008.0
20260505113228 70 360 3.5 8.7 0.00 0.00 0.00 87 1008.1
20260505113129 70 360 3.5 8.7 0.00 0.00 0.00 87 1008.1
20260505113051 70 360 3.5 11.3 0.00 0.00 0.00 87 1008.0
20260505112934 70 360 3.5 11.3 0.00 0.00 0.00 87 1007.9
20260505112834 70 360 3.5 11.3 0.00 0.00 0.00 87 1007.9
20260505112735 70 360 3.5 11.3 0.00 0.00 0.00 87 1008.0
20260505112654 70 360 3.5 11.3 0.00 0.00 0.00 87 1008.0
20260505112533 70 360 3.5 11.3 0.00 0.00 0.00 87 1008.1
20260505112434 70 360 3.5 11.3 0.00 0.00 0.00 87 1008.2
20260505112334 70 360 3.5 13.0 0.00 0.00 0.00 87 1008.2
20260505112235 70 360 2.6 13.0 0.00 0.00 0.00 87 1008.2
20260505112119 70 360 3.5 13.0 0.00 0.00 0.00 87 1008.3
20260505112019 70 360 2.6 13.0 0.00 0.00 0.00 87 1008.3
20260505111919 70 360 2.6 13.0 0.00 0.00 0.00 87 1008.2
20260505111820 70 360 3.5 13.0 0.00 0.00 0.00 87 1008.1
20260505111721 70 360 4.3 13.0 0.00 0.00 0.00 87 1008.1
20260505111621 70 360 4.3 12.2 0.00 0.00 0.00 87 1008.1
20260505111522 70 360 3.5 12.2 0.00 0.00 0.00 87 1008.1
20260505111426 70 360 3.5 12.2 0.00 0.00 0.00 87 1008.1
20260505111327 70 360 3.5 12.2 0.00 0.00 0.00 87 1008.2
20260505111228 70 360 3.5 12.2 0.00 0.00 0.00 87 1008.1
20260505111128 70 360 3.5 12.2 0.00 0.00 0.00 87 1008.1
20260505111029 70 360 4.3 12.2 0.00 0.00 0.00 87 1008.2
20260505110930 70 360 4.3 12.2 0.00 0.00 0.00 87 1008.2
20260505110830 70 360 5.2 12.2 0.00 0.00 0.00 87 1008.3
20260505110735 70 360 6.1 12.2 0.00 0.00 0.00 87 1008.3
20260505110636 70 360 5.2 12.2 0.00 0.00 0.00 87 1008.3
20260505110535 70 360 6.1 12.2 0.00 0.00 0.00 87 1008.3
20260505110416 70 360 6.1 12.2 0.00 0.00 0.00 87 1008.4
20260505110317 70 360 6.1 12.2 0.00 0.00 0.00 87 1008.4
20260505110217 70 360 5.2 12.2 0.00 0.00 0.00 87 1008.4
20260505110122 70 360 5.2 10.4 0.00 0.00 0.00 87 1008.5
20260505102120 70 360 7.0 16.5 0.00 0.00 0.00 87 1008.5
20260505102024 70 360 7.0 16.5 0.00 0.00 0.00 87 1008.5
20260505101924 70 360 5.2 13.9 0.00 0.00 0.00 87 1008.5
20260505101845 70 360 5.2 13.9 0.00 0.00 0.00 87 1008.5
20260505101724 70 360 6.1 13.9 0.00 0.00 0.00 87 1008.4
20260505101644 70 360 6.1 13.9 0.00 0.00 0.00 87 1008.4
20260505101524 70 360 6.1 13.9 0.00 0.00 0.00 87 1008.5
20260505101424 70 360 6.1 21.7 0.00 0.00 0.00 87 1008.4
20260505101329 70 360 6.1 21.7 0.00 0.00 0.00 87 1008.4
20260505101229 70 360 7.8 21.7 0.00 0.00 0.00 87 1008.3
20260505101129 70 360 7.8 21.7 0.00 0.00 0.00 87 1008.4
20260505101031 70 360 6.1 21.7 0.00 0.00 0.00 87 1008.4
20260505100931 70 360 6.1 21.7 0.00 0.00 0.00 87 1008.4
20260505100831 70 360 7.0 21.7 0.00 0.00 0.00 87 1008.4
20260505100732 70 360 6.1 21.7 0.00 0.00 0.00 87 1008.5
20260505100657 70 360 6.1 21.7 0.00 0.00 0.00 87 1008.5
20260505100537 70 360 4.3 13.9 0.00 0.00 0.00 87 1008.6
20260505100456 70 360 4.3 13.9 0.00 0.00 0.00 87 1008.6
20260505100316 70 360 5.2 13.0 0.00 0.00 0.00 86 1008.5
20260505100217 70 360 5.2 12.2 0.00 0.00 0.00 86 1008.5
20260505100118 70 360 5.2 12.2 0.00 0.00 0.00 86 1008.5
20260505100019 70 360 5.2 12.2 0.00 0.00 0.00 86 1008.5
20260505095924 70 360 5.2 12.2 0.00 0.00 0.00 86 1008.5
20260505095826 70 360 5.2 12.2 0.00 0.00 0.00 86 1008.5
20260505095746 70 360 5.2 12.2 0.00 0.00 0.00 86 1008.5
20260505095626 70 360 4.3 11.3 0.00 0.00 0.00 86 1008.5
20260505095526 70 360 3.5 11.3 0.00 0.00 0.00 86 1008.6
20260505095427 70 360 3.5 13.9 0.00 0.00 0.00 86 1008.5
20260505095326 70 360 3.5 13.9 0.00 0.00 0.00 86 1008.5
20260505095232 70 360 3.5 13.9 0.00 0.00 0.00 86 1008.5
20260505095132 70 360 3.5 13.9 0.00 0.00 0.00 86 1008.4
20260505095033 70 360 3.5 13.9 0.00 0.00 0.00 86 1008.5
20260505094934 70 360 3.5 13.9 0.00 0.00 0.00 86 1008.5
20260505094834 70 360 3.5 13.9 0.00 0.00 0.00 86 1008.5
20260505094735 70 360 3.5 13.9 0.00 0.00 0.00 86 1008.4
20260505094656 70 360 3.5 15.6 0.00 0.00 0.00 86 1008.4
20260505094519 70 360 4.3 15.6 0.00 0.00 0.00 86 1008.4
20260505094419 70 360 5.2 15.6 0.00 0.00 0.00 86 1008.4
20260505094320 70 360 5.2 15.6 0.00 0.00 0.00 86 1008.3
20260505094221 70 360 5.2 15.6 0.00 0.00 0.00 86 1008.4
20260505094142 70 360 5.2 15.6 0.00 0.00 0.00 86 1008.4
20260505094022 70 360 5.2 15.6 0.00 0.00 0.00 86 1008.5
20260505093922 70 360 6.1 15.6 0.00 0.00 0.00 86 1008.5
20260505093827 70 360 5.2 15.6 0.00 0.00 0.00 86 1008.5
20260505093727 70 360 5.2 12.2 0.00 0.00 0.00 86 1008.5
20260505093648 70 360 5.2 14.8 0.00 0.00 0.00 86 1008.5
20260505093528 70 360 4.3 14.8 0.00 0.00 0.00 86 1008.6
20260505093427 70 360 5.2 14.8 0.00 0.00 0.00 86 1008.6
20260505093328 70 360 5.2 14.8 0.00 0.00 0.00 86 1008.6
20260505093230 70 360 5.2 14.8 0.00 0.00 0.00 86 1008.5
20260505093134 70 360 5.2 14.8 0.00 0.00 0.00 86 1008.6
20260505093034 70 360 6.1 14.8 0.00 0.00 0.00 86 1008.6
20260505092916 70 360 6.1 14.8 0.00 0.00 0.00 86 1008.4
20260505092818 70 360 6.1 13.0 0.00 0.00 0.00 86 1008.4
20260505092717 70 360 6.1 13.0 0.00 0.00 0.00 86 1008.4
20260505092616 70 360 5.2 13.0 0.00 0.00 0.00 86 1008.5
20260505092521 70 360 5.2 14.8 0.00 0.00 0.00 86 1008.6
20260505092422 70 360 5.2 14.8 0.00 0.00 0.00 86 1008.6
20260505092322 70 360 4.3 14.8 0.00 0.00 0.00 86 1008.6
20260505092221 70 360 4.3 14.8 0.00 0.00 0.00 86 1008.6
20260505092122 70 360 4.3 14.8 0.00 0.00 0.00 86 1008.6
20260505092043 70 360 4.3 13.9 0.00 0.00 0.00 86 1008.6
20260505091942 70 360 4.3 13.9 0.00 0.00 0.00 86 1008.6
20260505091823 70 360 4.3 13.9 0.00 0.00 0.00 86 1008.4
20260505091726 70 360 4.3 13.9 0.00 0.00 0.00 86 1008.4
20260505091627 70 360 4.3 13.9 0.00 0.00 0.00 86 1008.4
20260505091528 70 360 5.2 13.9 0.00 0.00 0.00 86 1008.4
20260505091429 70 360 5.2 13.9 0.00 0.00 0.00 86 1008.4
20260505091329 70 360 5.2 13.9 0.00 0.00 0.00 86 1008.4
20260505091229 70 360 5.2 13.9 0.00 0.00 0.00 86 1008.5
20260505091130 70 360 7.0 13.9 0.00 0.00 0.00 86 1008.5
20260505091035 70 360 7.0 18.2 0.00 0.00 0.00 86 1008.5
20260505090935 70 360 7.0 18.2 0.00 0.00 0.00 86 1008.4
20260505090836 70 360 7.0 18.2 0.00 0.00 0.00 86 1008.3
20260505090716 70 360 6.1 18.2 0.00 0.00 0.00 85 1008.4
20260505090616 70 360 5.2 18.2 0.00 0.00 0.00 85 1008.4
20260505090517 70 360 4.3 18.2 0.00 0.00 0.00 85 1008.4
20260505090422 70 360 5.2 18.2 0.00 0.00 0.00 85 1008.6
20260505090322 70 360 5.2 18.2 0.00 0.00 0.00 86 1008.5
20260505090223 70 360 5.2 18.2 0.00 0.00 0.00 86 1008.5
20260505090123 70 360 5.2 18.2 0.00 0.00 0.00 86 1008.6
20260505090024 70 360 6.1 18.2 0.00 0.00 0.00 86 1008.7
20260505085924 70 360 6.1 17.4 0.00 0.00 0.00 86 1008.6
20260505085824 70 360 6.1 17.4 0.00 0.00 0.00 86 1008.7
20260505085729 70 360 5.2 12.2 0.00 0.00 0.00 86 1008.7
20260505085649 70 360 5.2 14.8 0.00 0.00 0.00 86 1008.7
20260505085528 70 360 6.1 14.8 0.00 0.00 0.00 86 1008.7
20260505085429 70 360 7.0 14.8 0.00 0.00 0.00 86 1008.6
20260505085330 70 360 7.0 14.8 0.00 0.00 0.00 86 1008.6
20260505085249 70 360 7.0 14.8 0.00 0.00 0.00 86 1008.6
20260505085128 70 360 7.0 14.8 0.00 0.00 0.00 86 1008.6
20260505085029 70 360 7.0 14.8 0.00 0.00 0.00 86 1008.7
20260505084934 70 360 7.0 14.8 0.00 0.00 0.00 85 1008.8
20260505084854 70 360 6.1 13.9 0.00 0.00 0.00 85 1008.7
20260505084755 70 360 5.2 18.2 0.00 0.00 0.00 85 1008.8
20260505084634 70 360 5.2 18.2 0.00 0.00 0.00 85 1008.8
20260505084516 70 360 5.2 18.2 0.00 0.00 0.00 85 1008.8
20260505084417 70 360 6.1 18.2 0.00 0.00 0.00 85 1008.7
20260505084317 70 360 6.1 18.2 0.00 0.00 0.00 85 1008.7
20260505084222 70 360 7.0 18.2 0.00 0.00 0.00 85 1008.6
20260505084142 70 360 7.0 18.2 0.00 0.00 0.00 85 1008.6
20260505084022 70 360 7.0 18.2 0.00 0.00 0.00 85 1008.6
20260505083939 70 360 7.0 17.4 0.00 0.00 0.00 85 1008.7
20260505083839 70 360 7.0 17.4 0.00 0.00 0.00 85 1008.6
20260505083720 70 360 6.1 15.6 0.00 0.00 0.00 85 1008.6
20260505083619 70 360 6.1 20.9 0.00 0.00 0.00 85 1008.7
20260505083540 70 360 5.2 20.9 0.00 0.00 0.00 85 1008.5
20260505083424 70 360 5.2 20.9 0.00 0.00 0.00 85 1008.6
20260505083324 70 360 5.2 20.9 0.00 0.00 0.00 85 1008.6
20260505083225 70 360 5.2 20.9 0.00 0.00 0.00 85 1008.6
20260505083125 70 360 6.1 20.9 0.00 0.00 0.00 85 1008.7
20260505083025 70 360 7.0 20.9 0.00 0.00 0.00 85 1008.7
20260505082926 70 360 7.0 20.9 0.00 0.00 0.00 85 1008.8
20260505082826 70 360 7.0 20.9 0.00 0.00 0.00 86 1008.8
20260505082752 70 360 7.8 20.9 0.00 0.00 0.00 86 1008.9
20260505082631 70 360 7.8 20.9 0.00 0.00 0.00 86 1008.9
20260505082551 70 360 7.8 20.9 0.00 0.00 0.00 86 1008.9
20260505082430 70 360 7.0 20.0 0.00 0.00 0.00 86 1008.9
20260505082330 70 360 7.0 20.0 0.00 0.00 0.00 86 1008.9
20260505082251 70 360 7.0 20.0 0.00 0.00 0.00 86 1009.0
20260505082130 70 360 7.0 20.0 0.00 0.00 0.00 86 1009.0
20260505082031 70 360 7.0 19.1 0.00 0.00 0.00 86 1009.0
20260505081916 70 360 5.2 19.1 0.00 0.00 0.00 86 1009.1
20260505081835 70 360 6.1 19.1 0.00 0.00 0.00 86 1009.1
20260505081716 70 360 6.1 19.1 0.00 0.00 0.00 86 1009.1
20260505081617 70 360 5.2 19.1 0.00 0.00 0.00 86 1009.1
20260505081517 70 360 4.3 19.1 0.00 0.00 0.00 86 1009.1
20260505081418 70 360 4.3 19.1 0.00 0.00 0.00 86 1009.2
20260505081322 70 360 5.2 19.1 0.00 0.00 0.00 86 1009.2
20260505081222 70 360 5.2 19.1 0.00 0.00 0.00 86 1009.1
20260505081142 70 360 5.2 15.6 0.00 0.00 0.00 86 1009.1
20260505081042 70 360 5.2 15.6 0.00 0.00 0.00 86 1009.2
20260505080921 70 360 5.2 15.6 0.00 0.00 0.00 86 1009.2
20260505080821 70 360 5.2 15.6 0.00 0.00 0.00 86 1009.1
20260505080723 70 360 6.1 17.4 0.00 0.00 0.00 86 1009.2
20260505080628 70 360 5.2 17.4 0.00 0.00 0.00 86 1009.2
20260505080528 70 360 4.3 17.4 0.00 0.00 0.00 86 1009.1
20260505080449 70 360 4.3 17.4 0.00 0.00 0.00 86 1009.1
20260505080328 70 360 3.5 17.4 0.00 0.00 0.00 86 1009.2
20260505080229 70 360 4.3 17.4 0.00 0.00 0.00 86 1009.2
20260505080130 70 360 4.3 17.4 0.00 0.00 0.00 86 1009.2
20260505080028 70 360 4.3 17.4 0.00 0.00 0.00 86 1009.2
20260505075929 70 360 4.3 17.4 0.00 0.00 0.00 86 1009.3
20260505075833 70 360 5.2 17.4 0.00 0.00 0.00 86 1009.2
20260505075735 70 360 5.2 17.4 0.00 0.00 0.00 86 1009.2
20260505075634 70 360 5.2 17.4 0.00 0.00 0.00 86 1009.3
20260505075535 70 360 6.1 17.4 0.00 0.00 0.00 86 1009.3
20260505075435 70 360 6.1 17.4 0.00 0.00 0.00 85 1009.3
20260505075336 70 360 7.0 20.9 0.00 0.00 0.00 85 1009.2
20260505075220 70 360 7.0 20.9 0.00 0.00 0.00 85 1009.2
20260505075121 70 360 7.0 20.9 0.00 0.00 0.00 85 1009.4
20260505075022 70 360 7.0 20.9 0.00 0.00 0.00 85 1009.2
20260505074941 70 360 7.0 20.9 0.00 0.00 0.00 85 1009.3
20260505074821 70 360 7.0 20.9 0.00 0.00 0.00 85 1009.4
20260505074719 70 360 6.1 20.9 0.00 0.00 0.00 85 1009.5
20260505074619 70 360 5.2 20.9 0.00 0.00 0.00 85 1009.5
20260505074520 70 360 6.1 20.9 0.00 0.00 0.00 85 1009.5
20260505074424 70 360 6.1 20.9 0.00 0.00 0.00 85 1009.5
20260505074325 70 360 6.1 20.9 0.00 0.00 0.00 85 1009.5
20260505074225 70 360 6.1 20.9 0.00 0.00 0.00 85 1009.4
20260505074126 70 360 6.1 20.9 0.00 0.00 0.00 85 1009.3
20260505074046 70 360 7.0 20.9 0.00 0.00 0.00 85 1009.5
20260505073926 70 360 6.1 20.9 0.00 0.00 0.00 85 1009.5
20260505073825 70 360 6.1 20.9 0.00 0.00 0.00 85 1009.4
20260505073750 70 360 6.1 18.2 0.00 0.00 0.00 85 1009.4
20260505073711 70 360 6.1 16.5 0.00 0.00 0.00 85 1009.3
20260505073631 70 360 6.1 16.5 0.00 0.00 0.00 85 1009.5
20260505073510 70 360 5.2 16.5 0.00 0.00 0.00 85 1009.4
20260505073430 70 360 6.1 16.5 0.00 0.00 0.00 85 1009.5
20260505073313 70 360 6.1 16.5 0.00 0.00 0.00 85 1009.4
20260505073158 70 360 6.1 16.5 0.00 0.00 0.00 85 1009.5
20260505073022 70 360 6.1 16.5 0.00 0.00 0.00 85 1009.5
20260505072923 70 360 6.1 16.5 0.00 0.00 0.00 85 1009.4
20260505072824 70 360 6.1 16.5 0.00 0.00 0.00 85 1009.4
20260505072730 70 360 5.2 16.5 0.00 0.00 0.00 85 1009.4
20260505072629 70 360 5.2 16.5 0.00 0.00 0.00 84 1009.5
20260505072529 70 360 5.2 16.5 0.00 0.00 0.00 84 1009.5
20260505072429 70 360 4.3 16.5 0.00 0.00 0.00 84 1009.5
20260505072331 70 360 4.3 16.5 0.00 0.00 0.00 84 1009.4
20260505072230 70 360 5.2 16.5 0.00 0.00 0.00 84 1009.6
20260505072131 70 360 6.1 16.5 0.00 0.00 0.00 84 1009.6
20260505072016 70 360 6.1 16.5 0.00 0.00 0.00 84 1009.6
20260505071918 70 360 6.1 16.5 0.00 0.00 0.00 84 1009.7
20260505071819 70 360 6.1 16.5 0.00 0.00 0.00 84 1009.7
20260505071719 70 360 6.1 16.5 0.00 0.00 0.00 84 1009.7
20260505071619 70 360 5.2 14.8 0.00 0.00 0.00 84 1009.6
20260505071540 70 360 3.5 14.8 0.00 0.00 0.00 84 1009.6
20260505071424 70 360 3.5 15.6 0.00 0.00 0.00 84 1009.7
20260505071326 70 360 4.3 15.6 0.00 0.00 0.00 84 1009.7
20260505071225 70 360 4.3 15.6 0.00 0.00 0.00 84 1009.7
20260505071126 70 360 4.3 18.2 0.00 0.00 0.00 84 1009.7
20260505071026 70 360 4.3 18.2 0.00 0.00 0.00 84 1009.7
20260505070947 70 360 5.2 18.2 0.00 0.00 0.00 84 1009.7
20260505070826 70 360 6.1 18.2 0.00 0.00 0.00 84 1009.7
20260505070731 70 360 6.1 18.2 0.00 0.00 0.00 84 1009.8
20260505070632 70 360 6.1 18.2 0.00 0.00 0.00 84 1009.8
20260505070533 70 360 6.1 18.2 0.00 0.00 0.00 84 1009.8
20260505070434 70 360 7.0 18.2 0.00 0.00 0.00 84 1009.7
20260505070335 70 360 6.1 18.2 0.00 0.00 0.00 84 1009.7
20260505070235 70 360 6.1 18.2 0.00 0.00 0.00 84 1009.7
20260505070120 70 360 6.1 18.2 0.00 0.00 0.00 84 1009.8
20260505070019 71 360 7.0 18.2 0.00 0.00 0.00 84 1009.8
20260505065940 71 360 6.1 18.2 0.00 0.00 0.00 84 1009.8
20260505065823 71 360 6.1 18.2 0.00 0.00 0.00 84 1009.8
20260505065723 71 360 7.0 18.2 0.00 0.00 0.00 84 1009.8
20260505065623 71 360 7.0 18.2 0.00 0.00 0.00 84 1009.9
20260505065523 71 360 7.8 18.2 0.00 0.00 0.00 84 1009.8
20260505065421 71 360 7.0 18.2 0.00 0.00 0.00 84 1009.9
20260505065322 71 360 7.8 18.2 0.00 0.00 0.00 84 1009.9
20260505065226 71 360 7.8 18.2 0.00 0.00 0.00 84 1009.9
20260505065126 71 360 7.0 18.2 0.00 0.00 0.00 84 1009.9
20260505065047 71 360 7.0 18.2 0.00 0.00 0.00 84 1009.9
20260505064927 70 360 5.2 16.5 0.00 0.00 0.00 84 1009.9
20260505064846 70 360 6.1 16.5 0.00 0.00 0.00 84 1009.9
20260505064746 71 360 6.1 16.5 0.00 0.00 0.00 84 1010.0
20260505064626 71 360 6.1 16.5 0.00 0.00 0.00 84 1010.0
20260505064545 71 360 5.2 16.5 0.00 0.00 0.00 84 1010.0
20260505064429 71 360 4.3 14.8 0.00 0.00 0.00 84 1010.0
20260505064350 71 360 5.2 14.8 0.00 0.00 0.00 84 1010.0
20260505064229 71 360 4.3 14.8 0.00 0.00 0.00 84 1010.0
20260505064131 71 360 4.3 14.8 0.00 0.00 0.00 84 1010.0
20260505064030 71 360 5.2 16.5 0.00 0.00 0.00 84 1010.1
20260505063931 71 360 5.2 16.5 0.00 0.00 0.00 84 1010.1
20260505063830 71 360 5.2 16.5 0.00 0.00 0.00 84 1010.1
20260505063731 71 360 4.3 16.5 0.00 0.00 0.00 84 1010.1
20260505063634 71 360 5.2 16.5 0.00 0.00 0.00 84 1010.1
20260505063555 71 360 5.2 16.5 0.00 0.00 0.00 84 1010.2
20260505063435 71 360 5.2 16.5 0.00 0.00 0.00 84 1010.1
20260505063335 71 360 6.1 16.5 0.00 0.00 0.00 84 1010.1
20260505063235 71 360 7.8 16.5 0.00 0.00 0.00 84 1010.2
20260505063116 71 360 7.8 16.5 0.00 0.00 0.00 84 1010.1
20260505063021 71 360 7.8 16.5 0.00 0.00 0.00 84 1010.2
20260505062941 71 360 7.0 16.5 0.00 0.00 0.00 84 1010.2
20260505062821 71 360 5.2 16.5 0.00 0.00 0.00 84 1010.3
20260505062721 71 360 7.0 21.7 0.00 0.00 0.00 84 1010.3
20260505062620 71 360 7.0 21.7 0.00 0.00 0.00 84 1010.3
20260505062521 71 360 6.1 21.7 0.00 0.00 0.00 84 1010.3
20260505062422 71 360 6.1 21.7 0.00 0.00 0.00 84 1010.4
20260505062323 71 360 6.1 21.7 0.00 0.00 0.00 84 1010.3
20260505062228 71 360 7.0 21.7 0.00 0.00 0.00 84 1010.3
20260505062129 71 360 6.1 21.7 0.00 0.00 0.00 84 1010.3
20260505062030 71 360 5.2 21.7 0.00 0.00 0.00 84 1010.3
20260505061950 71 360 5.2 21.7 0.00 0.00 0.00 84 1010.4
20260505061829 71 360 6.1 21.7 0.00 0.00 0.00 84 1010.4
20260505061730 71 360 6.1 21.7 0.00 0.00 0.00 84 1010.4
20260505061630 71 360 7.0 21.7 0.00 0.00 0.00 84 1010.4
20260505061535 71 360 7.0 21.7 0.00 0.00 0.00 84 1010.4
20260505061435 70 360 7.0 21.7 0.00 0.00 0.00 84 1010.4
20260505061335 71 360 7.0 21.7 0.00 0.00 0.00 84 1010.4
20260505061235 71 360 7.0 15.6 0.00 0.00 0.00 84 1010.4
20260505061136 71 360 7.0 15.6 0.00 0.00 0.00 84 1010.4
20260505061056 71 360 7.0 15.6 0.00 0.00 0.00 84 1010.4
20260505060921 71 360 6.1 15.6 0.00 0.00 0.00 84 1010.4
20260505060822 71 360 5.2 15.6 0.00 0.00 0.00 84 1010.3
20260505060742 71 360 5.2 15.6 0.00 0.00 0.00 84 1010.4
20260505060622 71 360 4.3 18.2 0.00 0.00 0.00 84 1010.4
20260505060522 71 360 4.3 18.2 0.00 0.00 0.00 84 1010.4
20260505060422 71 360 4.3 18.2 0.00 0.00 0.00 84 1010.4
20260505060322 71 360 6.1 18.2 0.00 0.00 0.00 84 1010.4
20260505060226 71 360 6.1 20.9 0.00 0.00 0.00 84 1010.4
20260505060147 71 360 6.1 20.9 0.00 0.00 0.00 84 1010.4
20260505060027 71 360 7.0 20.9 0.00 0.00 0.00 84 1010.4
20260505055927 71 360 7.8 20.9 0.00 0.00 0.00 84 1010.5
20260505055829 71 360 7.8 20.9 0.00 0.00 0.00 84 1010.4
20260505055729 71 360 7.8 20.9 0.00 0.00 0.00 84 1010.5
20260505055626 71 360 7.0 24.3 0.00 0.00 0.00 84 1010.4
20260505055532 71 360 7.0 24.3 0.00 0.00 0.00 84 1010.4
20260505055432 71 360 7.0 24.3 0.00 0.00 0.00 84 1010.4
20260505055332 71 360 7.8 24.3 0.00 0.00 0.00 84 1010.3
20260505055232 71 360 7.8 24.3 0.00 0.00 0.00 84 1010.3
20260505055133 71 360 8.7 24.3 0.00 0.00 0.00 84 1010.3
20260505055034 71 360 9.6 24.3 0.00 0.00 0.00 84 1010.3
20260505054933 71 360 8.7 24.3 0.00 0.00 0.00 84 1010.4
20260505054818 71 360 7.8 21.7 0.00 0.00 0.00 84 1010.3
20260505054718 71 360 7.8 21.7 0.00 0.00 0.00 84 1010.3
20260505054619 71 360 7.8 21.7 0.00 0.00 0.00 84 1010.3
20260505054519 71 360 7.8 21.7 0.00 0.00 0.00 84 1010.3
20260505054419 71 360 7.8 21.7 0.00 0.00 0.00 84 1010.4
20260505054320 71 360 7.8 27.8 0.00 0.00 0.00 84 1010.3
20260505054221 71 360 8.7 27.8 0.00 0.00 0.00 84 1010.3
20260505054126 71 360 8.7 27.8 0.00 0.00 0.00 84 1010.3
20260505054026 71 360 9.6 27.8 0.00 0.00 0.00 84 1010.4
20260505053947 71 360 7.8 27.8 0.00 0.00 0.00 84 1010.4
20260505053825 71 360 7.8 27.8 0.00 0.00 0.00 84 1010.4
20260505053747 71 360 7.8 27.8 0.00 0.00 0.00 84 1010.5
20260505053627 71 360 7.8 27.8 0.00 0.00 0.00 84 1010.5
20260505053526 71 360 8.7 27.8 0.00 0.00 0.00 84 1010.5
20260505053431 71 360 9.6 27.8 0.00 0.00 0.00 84 1010.4
20260505053352 71 360 9.6 27.8 0.00 0.00 0.00 84 1010.4
20260505053232 71 360 9.6 27.8 0.00 0.00 0.00 84 1010.4
20260505053133 71 360 8.7 21.7 0.00 0.00 0.00 84 1010.3
20260505053033 71 360 9.6 21.7 0.00 0.00 0.00 84 1010.3
20260505052934 71 360 8.7 18.2 0.00 0.00 0.00 84 1010.2
20260505052836 71 360 8.7 18.2 0.00 0.00 0.00 84 1010.3
20260505052720 71 360 8.7 18.2 0.00 0.00 0.00 84 1010.3
20260505052619 71 360 8.7 18.2 0.00 0.00 0.00 84 1010.3
20260505052520 71 360 8.7 18.2 0.00 0.00 0.00 84 1010.3
20260505052441 71 360 7.8 18.2 0.00 0.00 0.00 84 1010.3
20260505052321 71 360 7.8 18.2 0.00 0.00 0.00 84 1010.3
20260505052221 71 360 6.1 18.2 0.00 0.00 0.00 84 1010.3
20260505052121 71 360 7.0 18.2 0.00 0.00 0.00 84 1010.3
20260505052026 71 360 6.1 18.2 0.00 0.00 0.00 84 1010.3
20260505051926 71 360 7.0 18.2 0.00 0.00 0.00 84 1010.3
20260505051827 71 360 7.0 18.2 0.00 0.00 0.00 84 1010.3
20260505051726 71 360 7.0 18.2 0.00 0.00 0.00 84 1010.4
20260505051628 71 360 7.0 18.2 0.00 0.00 0.00 84 1010.3
20260505051528 71 360 7.0 14.8 0.00 0.00 0.00 84 1010.4
20260505051449 71 360 7.0 14.8 0.00 0.00 0.00 84 1010.4
20260505051332 71 360 6.1 16.5 0.00 0.00 0.00 84 1010.4
20260505051232 71 360 7.0 16.5 0.00 0.00 0.00 84 1010.3
20260505051134 71 360 7.0 16.5 0.00 0.00 0.00 84 1010.4
20260505051034 71 360 7.0 16.5 0.00 0.00 0.00 84 1010.3
20260505050934 71 360 7.8 16.5 0.00 0.00 0.00 84 1010.3
20260505050835 71 360 7.8 16.5 0.00 0.00 0.00 84 1010.4
20260505050719 71 360 7.8 13.9 0.00 0.00 0.00 84 1010.3
20260505050620 71 360 7.8 13.9 0.00 0.00 0.00 84 1010.2
20260505050539 71 360 7.0 13.9 0.00 0.00 0.00 84 1010.2
20260505050419 71 360 6.1 13.9 0.00 0.00 0.00 84 1010.2
20260505050319 71 360 5.2 13.9 0.00 0.00 0.00 84 1010.2
20260505050240 71 360 5.2 13.9 0.00 0.00 0.00 84 1010.3
20260505050120 71 360 5.2 13.9 0.00 0.00 0.00 83 1010.4
20260505041727 72 360 7.8 16.5 0.00 0.00 0.00 82 1010.2
20260505041651 72 360 8.7 16.5 0.00 0.00 0.00 82 1010.2
20260505041532 72 360 8.7 16.5 0.00 0.00 0.00 82 1010.2
20260505041432 72 360 9.6 16.5 0.00 0.00 0.00 81 1010.3
20260505041333 72 360 8.7 16.5 0.00 0.00 0.00 81 1010.2
20260505041253 72 360 7.8 16.5 0.00 0.00 0.00 81 1010.2
20260505041132 72 360 8.7 16.5 0.00 0.00 0.00 81 1010.2
20260505041032 72 360 8.7 16.5 0.00 0.00 0.00 81 1010.2
20260505040917 72 360 8.7 19.1 0.00 0.00 0.00 81 1010.2
20260505040818 72 360 8.7 19.1 0.00 0.00 0.00 81 1010.2
20260505040718 72 360 8.7 19.1 0.00 0.00 0.00 81 1010.2
20260505040618 72 360 9.6 19.1 0.00 0.00 0.00 81 1010.2
20260505040519 72 360 9.6 16.5 0.00 0.00 0.00 81 1010.3
20260505040439 72 360 9.6 16.5 0.00 0.00 0.00 81 1010.2
20260505040319 72 360 9.6 16.5 0.00 0.00 0.00 81 1010.3
20260505040238 72 360 9.6 16.5 0.00 0.00 0.00 81 1010.3
20260505040122 72 360 9.6 16.5 0.00 0.00 0.00 81 1010.3
20260505040023 73 360 9.6 16.5 0.00 0.00 0.00 81 1010.3
20260505035924 73 360 8.7 20.9 0.00 0.00 0.00 81 1010.2
20260505035825 73 360 9.6 20.9 0.00 0.00 0.00 81 1010.2
20260505035724 73 360 10.4 20.9 0.00 0.00 0.00 81 1010.3
20260505035625 73 360 10.4 20.9 0.00 0.00 0.00 80 1010.2
20260505035529 73 360 11.3 20.9 0.00 0.00 0.00 80 1010.2
20260505035430 73 360 11.3 20.9 0.00 0.00 0.00 80 1010.3
20260505035330 73 360 11.3 20.9 0.00 0.00 0.00 80 1010.3
20260505035250 73 360 11.3 20.9 0.00 0.00 0.00 80 1010.4
20260505035130 73 360 11.3 20.9 0.00 0.00 0.00 80 1010.3
20260505035051 73 360 11.3 20.9 0.00 0.00 0.00 80 1010.3
20260505034930 73 360 10.4 17.4 0.00 0.00 0.00 80 1010.3
20260505034831 73 360 9.6 17.4 0.00 0.00 0.00 80 1010.3
20260505034716 73 360 8.7 15.6 0.00 0.00 0.00 80 1010.2
20260505034636 73 360 8.7 15.6 0.00 0.00 0.00 80 1010.2
20260505034534 73 360 8.7 17.4 0.00 0.00 0.00 80 1010.2
20260505034455 73 360 8.7 17.4 0.00 0.00 0.00 80 1010.3
20260505034336 73 360 9.6 17.4 0.00 0.00 0.00 80 1010.3
20260505034235 73 360 10.4 17.4 0.00 0.00 0.00 80 1010.3
20260505034120 73 360 10.4 19.1 0.00 0.00 0.00 80 1010.2
20260505034020 73 360 10.4 19.1 0.00 0.00 0.00 80 1010.3
20260505033940 73 360 10.4 19.1 0.00 0.00 0.00 80 1010.2
20260505033820 73 360 11.3 19.1 0.00 0.00 0.00 80 1010.2
20260505033721 73 360 10.4 19.1 0.00 0.00 0.00 80 1010.2
20260505033622 73 360 9.6 19.1 0.00 0.00 0.00 80 1010.3
20260505033522 73 360 8.7 19.1 0.00 0.00 0.00 80 1010.3
20260505033427 73 360 8.7 19.1 0.00 0.00 0.00 80 1010.3
20260505033328 73 360 8.7 19.1 0.00 0.00 0.00 80 1010.3
20260505033228 73 360 7.8 19.1 0.00 0.00 0.00 80 1010.2
20260505033130 73 360 7.8 19.1 0.00 0.00 0.00 80 1010.3
20260505033030 73 360 7.8 19.1 0.00 0.00 0.00 80 1010.3
20260505032930 73 360 7.8 19.1 0.00 0.00 0.00 80 1010.3
20260505032831 73 360 7.0 15.6 0.00 0.00 0.00 79 1010.4
20260505032736 73 360 7.0 15.6 0.00 0.00 0.00 79 1010.4
20260505032635 73 360 7.8 15.6 0.00 0.00 0.00 79 1010.3
20260505032517 73 360 7.8 15.6 0.00 0.00 0.00 79 1010.4
20260505032417 73 360 7.8 17.4 0.00 0.00 0.00 79 1010.3
20260505032318 73 360 7.8 17.4 0.00 0.00 0.00 79 1010.4
20260505032218 73 360 8.7 17.4 0.00 0.00 0.00 79 1010.3
20260505032122 73 360 8.7 17.4 0.00 0.00 0.00 79 1010.3
20260505032022 73 360 9.6 17.4 0.00 0.00 0.00 79 1010.3
20260505031923 73 360 8.7 17.4 0.00 0.00 0.00 79 1010.2
20260505031824 73 360 7.8 17.4 0.00 0.00 0.00 79 1010.2
20260505031726 74 360 7.8 17.4 0.00 0.00 0.00 79 1010.2
20260505031626 74 360 7.8 17.4 0.00 0.00 0.00 79 1010.2
20260505031546 74 360 7.8 17.4 0.00 0.00 0.00 79 1010.2
20260505031430 74 360 7.8 17.4 0.00 0.00 0.00 79 1010.2
20260505031351 74 360 7.8 17.4 0.00 0.00 0.00 79 1010.2
20260505031230 74 360 7.0 17.4 0.00 0.00 0.00 79 1010.3
20260505031130 74 360 7.8 15.6 0.00 0.00 0.00 79 1010.2
20260505031029 74 360 8.7 15.6 0.00 0.00 0.00 79 1010.3
20260505030930 74 360 7.8 15.6 0.00 0.00 0.00 79 1010.3
20260505030830 74 360 7.8 15.6 0.00 0.00 0.00 79 1010.3
20260505030751 74 360 8.7 15.6 0.00 0.00 0.00 79 1010.3
20260505030654 74 360 7.8 15.6 0.00 0.00 0.00 79 1010.3
20260505030553 74 360 7.8 13.9 0.00 0.00 0.00 79 1010.3
20260505030433 74 360 7.8 13.9 0.00 0.00 0.00 79 1010.2
20260505030333 74 360 7.8 13.9 0.00 0.00 0.00 79 1010.3
20260505030234 74 360 7.0 13.0 0.00 0.00 0.00 79 1010.3
20260505030154 74 360 7.0 13.0 0.00 0.00 0.00 79 1010.3
20260505030033 74 360 6.1 12.2 0.00 0.00 0.00 79 1010.3
20260505025918 74 360 6.1 12.2 0.00 0.00 0.00 79 1010.2
20260505025819 74 360 6.1 12.2 0.00 0.00 0.00 78 1010.3
20260505025719 74 360 6.1 12.2 0.00 0.00 0.00 78 1010.2
20260505025639 74 360 6.1 13.0 0.00 0.00 0.00 78 1010.3
20260505025519 74 360 7.0 13.0 0.00 0.00 0.00 78 1010.4
20260505025441 74 360 7.0 13.0 0.00 0.00 0.00 78 1010.4
20260505025319 74 360 7.0 13.0 0.00 0.00 0.00 78 1010.4
20260505025220 74 360 6.1 13.0 0.00 0.00 0.00 78 1010.4
20260505025124 74 360 7.0 13.0 0.00 0.00 0.00 78 1010.3
20260505025025 74 360 7.0 13.0 0.00 0.00 0.00 78 1010.3
20260505024925 74 360 7.0 13.0 0.00 0.00 0.00 78 1010.3
20260505024826 74 360 6.1 13.9 0.00 0.00 0.00 78 1010.3
20260505024725 74 360 6.1 13.9 0.00 0.00 0.00 78 1010.2
20260505024646 74 360 5.2 13.9 0.00 0.00 0.00 78 1010.3
20260505024526 74 360 5.2 13.9 0.00 0.00 0.00 78 1010.3
20260505024430 74 360 5.2 13.9 0.00 0.00 0.00 77 1010.3
20260505024331 74 360 5.2 13.9 0.00 0.00 0.00 77 1010.2
20260505024231 74 360 5.2 13.9 0.00 0.00 0.00 77 1010.3
20260505024131 74 360 5.2 13.9 0.00 0.00 0.00 77 1010.3
20260505024052 74 360 5.2 13.9 0.00 0.00 0.00 77 1010.3
20260505023932 74 360 5.2 13.9 0.00 0.00 0.00 77 1010.3
20260505023816 74 360 5.2 11.3 0.00 0.00 0.00 77 1010.3
20260505023717 74 360 6.1 11.3 0.00 0.00 0.00 77 1010.3
20260505023617 74 360 6.1 11.3 0.00 0.00 0.00 77 1010.3
20260505023518 75 360 6.1 11.3 0.00 0.00 0.00 77 1010.3
20260505023419 74 360 6.1 11.3 0.00 0.00 0.00 77 1010.3
20260505023339 75 360 6.1 11.3 0.00 0.00 0.00 77 1010.3
20260505023238 75 360 6.1 11.3 0.00 0.00 0.00 77 1010.3
20260505023119 75 360 7.0 11.3 0.00 0.00 0.00 77 1010.3
20260505023024 75 360 7.0 11.3 0.00 0.00 0.00 77 1010.3
20260505022924 75 360 6.1 11.3 0.00 0.00 0.00 77 1010.3
20260505022825 75 360 5.2 11.3 0.00 0.00 0.00 77 1010.2
20260505022724 75 360 6.1 11.3 0.00 0.00 0.00 77 1010.2
20260505022625 75 360 6.1 11.3 0.00 0.00 0.00 77 1010.1
20260505022525 75 360 5.2 11.3 0.00 0.00 0.00 77 1010.3
20260505022430 75 360 5.2 11.3 0.00 0.00 0.00 76 1010.3
20260505022331 75 360 5.2 11.3 0.00 0.00 0.00 76 1010.2
20260505022232 75 360 6.1 11.3 0.00 0.00 0.00 76 1010.2
20260505022132 75 360 6.1 11.3 0.00 0.00 0.00 76 1010.2
20260505022032 75 360 6.1 11.3 0.00 0.00 0.00 76 1010.2
20260505021933 75 360 6.1 11.3 0.00 0.00 0.00 76 1010.2
20260505021819 75 360 7.0 11.3 0.00 0.00 0.00 76 1010.2
20260505021720 75 360 7.0 11.3 0.00 0.00 0.00 76 1010.1
20260505021621 75 360 6.1 11.3 0.00 0.00 0.00 76 1010.2
20260505021543 75 360 6.1 11.3 0.00 0.00 0.00 76 1010.2
20260505021416 75 360 6.1 11.3 0.00 0.00 0.00 76 1010.1
20260505021316 75 360 6.1 11.3 0.00 0.00 0.00 75 1010.2
20260505021216 75 360 6.1 11.3 0.00 0.00 0.00 75 1010.2
20260505021121 75 360 6.1 11.3 0.00 0.00 0.00 75 1010.2
20260505021021 75 360 6.1 11.3 0.00 0.00 0.00 75 1010.2
20260505020921 75 360 5.2 11.3 0.00 0.00 0.00 75 1010.2
20260505020823 75 360 5.2 11.3 0.00 0.00 0.00 75 1010.2
20260505020724 75 360 6.1 11.3 0.00 0.00 0.00 75 1010.1
20260505020645 75 360 6.1 11.3 0.00 0.00 0.00 74 1010.2
20260505020524 75 360 6.1 11.3 0.00 0.00 0.00 74 1010.1
20260505020429 75 360 6.1 11.3 0.00 0.00 0.00 74 1010.1
20260505020349 75 360 6.1 11.3 0.00 0.00 0.00 74 1010.1
20260505020229 75 360 6.1 11.3 0.00 0.00 0.00 74 1010.1
20260505020129 75 360 6.1 11.3 0.00 0.00 0.00 73 1010.2
20260505020031 75 360 6.1 11.3 0.00 0.00 0.00 73 1010.1
20260505015951 76 360 6.1 11.3 0.00 0.00 0.00 73 1010.1
20260505015830 76 360 5.2 11.3 0.00 0.00 0.00 73 1010.1
20260505015731 76 360 5.2 11.3 0.00 0.00 0.00 73 1010.1
20260505015630 76 360 4.3 10.4 0.00 0.00 0.00 73 1010.0
20260505015555 76 360 4.3 10.4 0.00 0.00 0.00 72 1010.0
20260505015453 76 360 4.3 13.0 0.00 0.00 0.00 72 1010.0
20260505015333 76 360 4.3 13.0 0.00 0.00 0.00 72 1010.0
20260505015234 76 360 3.5 13.0 0.00 0.00 0.00 72 1010.0
20260505015154 76 360 3.5 13.0 0.00 0.00 0.00 72 1010.1
20260505015034 76 360 4.3 13.0 0.00 0.00 0.00 72 1010.0
20260505014933 76 360 4.3 13.0 0.00 0.00 0.00 72 1010.1
20260505014818 76 360 5.2 13.0 0.00 0.00 0.00 72 1010.1
20260505014718 76 360 5.2 13.0 0.00 0.00 0.00 72 1010.0
20260505014639 76 360 5.2 13.0 0.00 0.00 0.00 72 1010.1
20260505014437 76 360 6.1 13.0 0.00 0.00 0.00 72 1010.0
20260505014317 76 360 6.1 13.0 0.00 0.00 0.00 72 1009.9
20260505014237 76 360 6.1 13.0 0.00 0.00 0.00 72 1009.9
20260505014116 76 360 6.1 13.0 0.00 0.00 0.00 72 1009.9
20260505014016 76 360 6.1 13.0 0.00 0.00 0.00 71 1009.9
20260505013920 76 360 6.1 13.0 0.00 0.00 0.00 71 1010.0
20260505013821 76 360 5.2 12.2 0.00 0.00 0.00 71 1010.0
20260505013721 76 360 5.2 12.2 0.00 0.00 0.00 71 1009.9
20260505013622 76 360 4.3 11.3 0.00 0.00 0.00 71 1010.0
20260505013519 76 360 4.3 11.3 0.00 0.00 0.00 71 1010.0
20260505013439 76 360 5.2 11.3 0.00 0.00 0.00 71 1010.0
20260505013319 76 360 4.3 11.3 0.00 0.00 0.00 71 1010.0
20260505013224 76 360 5.2 11.3 0.00 0.00 0.00 71 1010.0
20260505013145 76 360 5.2 11.3 0.00 0.00 0.00 71 1009.9
20260505013020 76 360 5.2 11.3 0.00 0.00 0.00 71 1009.8
20260505012920 76 360 5.2 11.3 0.00 0.00 0.00 71 1009.8
20260505012822 76 360 6.1 11.3 0.00 0.00 0.00 71 1009.8
20260505012742 77 360 5.2 11.3 0.00 0.00 0.00 71 1009.9
20260505012621 77 360 5.2 11.3 0.00 0.00 0.00 70 1009.9
20260505012522 77 360 5.2 11.3 0.00 0.00 0.00 70 1009.9
20260505012426 77 360 5.2 11.3 0.00 0.00 0.00 70 1009.9
20260505012326 77 360 5.2 11.3 0.00 0.00 0.00 70 1009.9
20260505012246 77 360 4.3 11.3 0.00 0.00 0.00 70 1009.9
20260505012146 77 360 4.3 11.3 0.00 0.00 0.00 70 1009.9
20260505012023 77 360 3.5 10.4 0.00 0.00 0.00 70 1009.9
20260505011924 77 360 3.5 10.4 0.00 0.00 0.00 70 1009.9
20260505011845 77 360 3.5 10.4 0.00 0.00 0.00 70 1009.9
20260505011725 77 360 3.5 10.4 0.00 0.00 0.00 70 1010.0
20260505011645 77 360 3.5 10.4 0.00 0.00 0.00 70 1010.0
20260505011549 77 360 3.5 10.4 0.00 0.00 0.00 70 1010.0
20260505011428 77 360 4.3 16.5 0.00 0.00 0.00 69 1010.0
20260505011329 77 360 4.3 16.5 0.00 0.00 0.00 69 1009.9
20260505011249 77 360 4.3 16.5 0.00 0.00 0.00 69 1009.9
20260505011129 77 360 4.3 16.5 0.00 0.00 0.00 69 1009.9
20260505011030 77 360 5.2 16.5 0.00 0.00 0.00 69 1009.9
20260505010929 77 360 6.1 16.5 0.00 0.00 0.00 69 1009.9
20260505010834 77 360 7.0 16.5 0.00 0.00 0.00 69 1009.8
20260505010734 77 360 7.8 16.5 0.00 0.00 0.00 69 1009.8
20260505010635 77 360 7.8 16.5 0.00 0.00 0.00 69 1009.7
20260505010555 77 360 7.8 16.5 0.00 0.00 0.00 69 1009.7
20260505010434 77 360 7.8 17.4 0.00 0.00 0.00 69 1009.7
20260505010335 77 360 7.0 17.4 0.00 0.00 0.00 69 1009.8
20260505010216 77 360 6.1 17.4 0.00 0.00 0.00 69 1009.8
20260505010121 77 360 6.1 17.4 0.00 0.00 0.00 69 1009.8
20260505010020 77 360 7.0 17.4 0.00 0.00 0.00 68 1009.8
20260505005941 77 360 7.0 17.4 0.00 0.00 0.00 68 1009.8
20260505005822 77 360 7.0 17.4 0.00 0.00 0.00 68 1009.9
20260505005721 77 360 7.0 13.9 0.00 0.00 0.00 68 1009.8
20260505005639 77 360 7.0 13.9 0.00 0.00 0.00 68 1009.8
20260505005517 78 360 6.1 13.9 0.00 0.00 0.00 68 1009.8
20260505005418 78 360 6.1 13.9 0.00 0.00 0.00 68 1009.8
20260505005322 78 360 6.1 13.9 0.00 0.00 0.00 68 1009.8
20260505005223 78 360 6.1 13.9 0.00 0.00 0.00 68 1009.8
20260505005124 78 360 6.1 14.8 0.00 0.00 0.00 67 1009.8
20260505005024 78 360 6.1 14.8 0.00 0.00 0.00 67 1009.8
20260505004924 78 360 7.0 14.8 0.00 0.00 0.00 67 1009.8
20260505004825 78 360 7.8 14.8 0.00 0.00 0.00 67 1009.9
20260505004725 78 360 7.8 14.8 0.00 0.00 0.00 67 1009.8
20260505004628 78 360 8.7 17.4 0.00 0.00 0.00 67 1009.8
20260505004549 78 360 8.7 20.9 0.00 0.00 0.00 67 1009.8
20260505004427 78 360 7.8 20.9 0.00 0.00 0.00 67 1009.7
20260505004348 78 360 7.8 20.9 0.00 0.00 0.00 67 1009.7
20260505004249 78 360 8.7 20.9 0.00 0.00 0.00 66 1009.7
20260505004128 78 360 7.8 20.9 0.00 0.00 0.00 66 1009.8
20260505004028 78 360 8.7 20.9 0.00 0.00 0.00 66 1009.7
20260505003949 78 360 7.8 19.1 0.00 0.00 0.00 66 1009.7
20260505003827 78 360 7.0 19.1 0.00 0.00 0.00 66 1009.7
20260505003732 78 360 7.0 19.1 0.00 0.00 0.00 66 1009.7
20260505003632 78 360 7.0 19.1 0.00 0.00 0.00 66 1009.7
20260505003532 78 360 6.1 13.0 0.00 0.00 0.00 66 1009.7
20260505003432 78 360 5.2 13.0 0.00 0.00 0.00 66 1009.7
20260505003332 78 360 4.3 13.0 0.00 0.00 0.00 66 1009.7
20260505003233 79 360 3.5 13.0 0.00 0.00 0.00 66 1009.6
20260505003154 79 360 4.3 13.0 0.00 0.00 0.00 66 1009.6
20260505003018 79 360 4.3 13.0 0.00 0.00 0.00 65 1009.6
20260505002919 79 360 4.3 13.0 0.00 0.00 0.00 65 1009.6
20260505002820 79 360 3.5 15.6 0.00 0.00 0.00 65 1009.6
20260505002720 79 360 4.3 17.4 0.00 0.00 0.00 65 1009.6
20260505002620 79 360 5.2 17.4 0.00 0.00 0.00 65 1009.6
20260505002521 79 360 6.1 17.4 0.00 0.00 0.00 65 1009.6
20260505002425 79 360 7.8 17.4 0.00 0.00 0.00 65 1009.7
20260505002345 79 360 7.8 17.4 0.00 0.00 0.00 65 1009.6
20260505002225 79 360 7.8 17.4 0.00 0.00 0.00 64 1009.7
20260505002125 79 360 8.7 17.4 0.00 0.00 0.00 64 1009.6
20260505002026 79 360 7.8 17.4 0.00 0.00 0.00 64 1009.6
20260505001927 79 360 7.8 17.4 0.00 0.00 0.00 65 1009.6
20260505001827 79 360 7.0 17.4 0.00 0.00 0.00 65 1009.6
20260505001731 79 360 7.0 17.4 0.00 0.00 0.00 65 1009.5
20260505001632 79 360 6.1 18.2 0.00 0.00 0.00 64 1009.6
20260505001532 79 360 6.1 18.2 0.00 0.00 0.00 64 1009.5
20260505001433 79 360 6.1 19.1 0.00 0.00 0.00 64 1009.4
20260505001333 79 360 6.1 19.1 0.00 0.00 0.00 63 1009.4
20260505001234 79 360 6.1 19.1 0.00 0.00 0.00 63 1009.5
20260505001118 79 360 7.0 19.1 0.00 0.00 0.00 63 1009.6
20260505001019 79 360 6.1 19.1 0.00 0.00 0.00 63 1009.5
20260505000918 79 360 7.0 19.1 0.00 0.00 0.00 63 1009.6
20260505000820 79 360 7.0 19.1 0.00 0.00 0.00 63 1009.5
20260505000721 79 360 7.0 19.1 0.00 0.00 0.00 63 1009.6
20260505000621 79 360 7.0 19.1 0.00 0.00 0.00 63 1009.7
20260505000521 79 360 7.0 19.1 0.00 0.00 0.00 63 1009.6
20260505000428 79 360 6.1 19.1 0.00 0.00 0.00 63 1009.6
20260505000327 79 360 7.0 20.9 0.00 0.00 0.00 63 1009.7
20260505000227 79 360 7.0 20.9 0.00 0.00 0.00 63 1009.7
20260505000128 79 360 7.0 20.9 0.00 0.00 0.00 63 1009.8
20260505000047 79 360 5.2 20.9 0.00 0.00 0.00 62 1009.7
20260504235927 79 360 7.0 20.9 0.00 0.00 0.00 62 1009.7
20260504235827 79 360 7.8 20.9 0.00 0.00 0.00 62 1009.8
20260504235752 79 360 9.6 20.9 0.00 0.00 0.00 62 1009.8
20260504235631 80 360 9.6 20.9 0.00 0.00 0.00 62 1009.8